GFSNE_700_rhum_000.txt.gz
RH
28 28 34 33 32 35 37 37 37 37 32 30 33 32 42 42 46 49 49 51 55 56 64 66 65 71 73 51 16 3 4 7 8 10 13 16 16 15
36 30 30 34 34 36 39 42 43 44 38 36 36 36 40 44 54 53 52 59 57 62 72 68 67 74 68 27 3 4 6 9 11 13 16 14 13 17
38 39 30 32 36 38 40 42 50 58 42 38 44 46 42 50 67 56 59 59 58 64 66 67 69 75 56 7 4 6 8 12 14 13 9 10 12 19
41 41 38 30 34 39 52 55 51 55 49 40 41 38 48 54 97 95 57 60 62 64 65 68 70 75 29 1 6 8 12 13 9 9 10 10 10 13
42 42 43 38 31 37 51 55 55 65 46 42 38 40 45 46 64 76 56 63 64 64 66 70 71 61 3 5 7 11 11 11 11 13 13 12 11 11
52 47 43 44 41 32 40 56 59 62 63 89 41 43 47 50 77 89 58 66 68 68 70 75 74 28 3 6 10 11 12 11 14 14 13 12 13 15
50 61 58 49 44 40 36 55 60 61 57 53 47 49 48 46 82 82 62 68 70 73 74 81 72 6 5 9 11 15 12 14 16 16 17 18 18 16
53 53 60 62 65 45 34 46 81 74 62 62 46 50 51 78 55 73 64 71 74 73 80 86 43 2 7 10 14 14 13 16 17 19 23 27 29 30
64 64 62 66 72 68 40 49 90 98 94 71 51 51 58 60 82 58 62 73 78 78 89 84 7 6 10 12 17 13 16 18 18 20 25 30 35 37
59 62 59 67 76 83 66 49 75 85 92 84 58 67 86 72 50 54 62 77 80 88 94 36 3 9 12 17 14 15 19 18 20 24 31 38 42 46
62 55 61 64 82 80 73 56 58 79 67 60 73 71 92 93 50 54 65 77 94 96 84 3 8 12 15 17 14 18 19 21 28 38 50 57 60 64
58 74 78 66 72 80 76 70 57 58 69 64 87 93 90 68 56 59 67 94 96 95 36 4 11 14 19 14 18 19 22 30 43 52 56 57 58 60
58 56 72 71 65 77 88 89 65 68 88 97 99 86 87 86 71 67 78 96 97 94 7 8 13 18 19 15 19 22 31 42 48 54 60 64 66 65
49 55 59 62 63 62 82 89 78 98 97 99 92 96 99 80 82 73 88 97 97 40 6 12 16 24 16 18 21 31 40 48 53 60 64 67 67 63
66 55 57 60 76 67 78 95 91 98 98 98 91 98 99 91 83 82 96 97 89 7 10 14 23 20 16 20 31 40 47 55 61 63 62 65 63 60
85 63 64 76 88 62 70 89 97 98 99 98 89 99 94 93 81 95 97 96 32 8 13 19 22 14 19 30 39 47 57 64 68 64 58 69 75 72
94 70 61 74 64 55 56 76 98 95 95 93 98 99 96 97 96 96 97 86 8 10 15 22 12 19 27 40 49 56 66 66 61 56 62 78 82 69
99 97 71 53 59 68 87 96 98 98 90 96 99 98 98 93 96 98 96 14 8 14 21 15 16 23 35 52 62 59 61 60 60 62 68 66 74 71
99 99 80 57 58 85 95 98 99 99 97 99 99 98 98 96 98 97 62 8 11 16 17 13 22 34 46 52 60 58 53 57 64 71 72 76 76 86
99 99 90 76 75 92 97 99 98 98 99 98 99 98 97 98 98 94 13 9 14 18 11 20 31 45 50 56 59 60 55 58 61 65 71 80 84 93
98 98 98 100 97 98 99 99 99 99 99 99 98 97 97 98 97 39 9 12 18 12 17 27 43 49 56 58 56 62 66 63 61 57 65 64 68 86
98 98 98 99 95 97 99 99 99 98 99 98 98 96 98 98 84 10 10 15 14 14 24 40 49 54 55 53 57 58 60 71 82 79 85 86 77 66
98 98 98 98 98 98 99 98 98 99 98 98 97 97 98 96 23 8 13 19 11 22 36 48 51 54 53 54 56 59 63 73 84 97 95 75 69 70

GFSNE_700_rhum_003.txt.gz
RH
32 35 38 37 36 38 34 30 35 42 50 38 41 40 42 41 52 61 54 45 50 46 50 49 56 58 63 65 70 71 66 14 1 4 7 11 13 10
38 36 37 37 40 40 39 31 32 37 42 92 60 57 49 36 37 46 42 42 42 49 46 52 58 62 72 69 73 72 35 1 4 8 12 13 11 10
40 38 40 43 41 44 42 37 32 33 40 42 64 72 73 60 42 48 40 46 51 78 58 59 62 69 74 74 74 63 4 4 8 12 14 12 11 11
39 39 38 38 40 42 52 44 42 37 44 55 65 65 69 62 56 48 54 59 62 76 56 62 66 76 75 74 78 31 2 7 11 15 13 12 11 14
61 62 56 47 44 43 50 59 44 46 50 61 65 79 77 62 58 53 56 62 75 98 71 61 69 76 74 76 76 6 4 10 15 15 12 12 14 16
53 58 54 56 48 46 52 65 61 59 59 55 70 90 83 72 70 46 49 62 89 100 66 60 70 76 78 80 45 4 9 14 17 12 12 13 16 19
50 49 58 59 58 53 54 62 80 86 79 67 74 81 85 96 77 62 57 54 99 93 60 62 76 72 79 81 10 8 12 18 13 13 14 16 19 23
67 52 51 59 67 61 60 67 75 80 98 86 91 94 84 98 92 71 60 52 91 92 61 67 76 74 89 56 6 12 17 16 13 15 16 20 24 30
76 69 60 62 75 77 70 71 77 85 93 95 96 93 92 96 96 90 57 70 69 69 64 73 82 92 82 10 11 14 18 13 14 17 20 26 35 44
90 77 58 55 61 64 69 68 75 96 98 99 98 98 98 96 98 98 86 87 97 70 69 78 90 93 38 7 13 18 16 13 16 19 26 37 43 47
95 90 68 59 61 67 80 95 86 92 97 99 99 99 96 97 98 98 91 97 94 75 80 84 94 78 8 10 17 19 14 15 16 25 35 42 47 52
65 97 91 74 65 73 92 97 98 87 98 99 99 100 98 99 99 93 98 97 89 81 84 92 91 29 8 14 20 16 13 15 23 33 41 48 56 59
57 63 92 98 83 61 71 96 98 98 98 99 99 99 99 96 98 96 97 99 89 92 92 96 62 8 12 20 18 14 15 22 32 40 46 55 64 65
77 73 85 92 99 72 80 88 96 87 96 96 99 99 99 99 96 96 98 97 99 94 98 90 11 11 19 20 12 16 25 36 44 49 54 59 62 57
94 97 98 88 97 90 70 77 86 78 90 99 99 98 99 99 99 96 97 99 98 97 95 27 10 16 19 11 17 28 35 47 50 52 51 56 56 63
78 92 86 84 87 92 77 76 85 98 98 99 98 98 99 99 99 98 97 97 99 99 65 9 13 18 11 19 29 35 42 47 54 53 52 61 65 64
80 81 92 88 100 91 76 92 98 99 100 100 98 97 99 99 99 98 97 92 100 91 14 11 17 10 19 28 36 41 49 55 53 56 55 62 72 66
76 91 92 100 100 97 65 80 86 92 100 100 98 98 99 97 98 98 92 98 97 29 10 16 10 17 28 39 47 50 51 52 58 63 64 60 68 78
91 90 97 98 98 97 91 95 100 100 98 99 99 98 99 98 99 96 95 98 56 10 15 12 14 26 37 42 50 50 50 57 59 65 69 70 75 86
100 97 96 98 98 97 99 99 99 99 99 99 99 99 99 98 97 91 99 85 10 12 14 13 24 37 43 48 49 59 55 55 56 59 70 75 90 96
96 98 96 97 98 98 100 91 96 97 99 98 99 99 98 97 88 98 90 10 11 16 11 23 36 43 47 48 52 58 76 76 69 66 68 68 76 83
94 97 97 97 97 98 98 99 98 98 98 98 98 98 97 90 97 96 17 9 16 11 23 36 43 46 46 50 59 70 75 92 99 85 73 69 66 63
75 95 97 97 97 97 98 98 98 98 97 97 98 97 95 97 98 22 8 16 11 20 34 42 43 44 50 65 73 81 86 70 71 84 97 98 97 91

GFSNE_700_rhum_006.txt.gz
RH
34 36 38 38 38 43 46 44 42 43 48 48 38 37 35 54 46 44 55 56 70 76 78 66 59 56 54 54 57 59 65 71 74 68 45 2 4 9
41 42 42 42 42 41 43 40 41 43 48 49 48 45 47 41 67 77 78 83 72 69 68 56 57 72 73 54 58 64 70 72 73 71 11 4 8 15
54 56 58 54 50 48 48 46 53 47 56 44 54 54 51 55 65 98 82 64 80 57 44 43 58 67 66 55 60 68 72 74 76 48 3 7 14 15
65 64 73 75 72 78 85 80 87 86 55 49 59 57 57 61 78 98 99 87 86 56 42 47 62 76 87 58 61 73 72 78 76 9 6 11 16 10
73 71 72 68 65 78 76 84 67 68 68 69 64 68 85 87 86 98 99 97 94 77 50 55 64 86 97 64 68 75 80 83 48 5 10 17 12 10
62 68 72 74 74 65 53 60 68 67 80 85 81 74 85 88 96 99 97 96 99 95 75 62 62 100 88 63 76 76 81 82 12 8 16 16 11 13
45 62 72 76 74 75 64 60 75 81 97 92 85 94 95 95 94 99 99 99 97 97 92 70 91 98 75 65 72 79 90 34 6 13 18 12 13 16
50 52 67 79 86 88 79 65 62 79 98 98 99 87 89 99 98 99 99 99 99 91 96 84 88 89 71 70 73 83 74 7 10 18 14 13 16 20
46 51 65 69 79 96 93 82 64 63 91 97 96 99 99 98 100 98 99 99 98 98 99 99 99 95 77 77 78 88 22 8 16 16 13 15 19 28
48 49 51 61 72 92 100 94 83 63 71 82 86 98 89 100 98 100 98 99 98 96 99 98 93 93 81 84 90 60 8 12 18 13 13 17 25 35
48 45 47 48 59 62 67 91 89 78 74 79 93 97 98 96 99 99 98 99 98 98 98 99 95 85 89 92 82 12 9 19 14 12 17 26 33 41
53 46 45 47 46 57 73 80 85 84 77 74 93 92 94 98 99 99 96 98 100 99 99 99 97 95 94 92 26 8 16 14 12 19 28 35 44 52
61 50 45 49 56 56 78 89 92 100 96 95 89 93 97 97 99 99 99 99 98 99 99 97 88 89 98 40 8 14 12 11 22 30 39 47 54 56
66 54 52 63 65 68 87 92 100 98 85 92 95 96 99 96 99 99 99 99 99 99 98 97 90 96 48 8 14 12 12 24 32 42 46 53 54 51
70 58 55 70 78 73 90 88 98 88 97 96 99 96 99 99 99 98 99 99 99 98 96 94 96 65 8 14 11 15 26 37 45 48 48 51 52 51
69 57 54 66 83 96 92 97 100 99 95 98 99 100 99 100 98 98 99 100 98 96 97 94 66 8 13 11 17 29 33 39 46 48 45 51 55 55
78 71 61 65 69 95 99 100 99 98 95 99 99 99 99 99 99 98 99 98 97 90 94 72 9 12 11 19 29 32 37 43 46 48 48 51 62 60
82 73 69 90 90 89 96 99 99 97 96 99 98 99 98 98 99 98 98 97 91 94 80 10 13 12 20 31 35 38 40 44 49 55 60 56 61 75
69 69 74 94 95 95 95 98 99 99 98 99 98 98 98 98 99 98 98 96 90 73 10 14 11 22 30 36 42 43 44 51 54 58 64 62 66 78
45 62 63 90 96 97 97 97 98 98 98 99 97 99 97 97 97 98 96 95 61 8 14 12 24 31 36 39 45 56 59 52 55 58 72 83 89 91
35 49 51 78 96 96 96 97 98 98 98 98 97 97 97 96 97 97 98 45 8 14 12 27 34 38 40 45 50 55 74 80 81 73 65 64 74 92
27 37 46 62 95 96 96 96 97 97 98 97 96 97 97 96 97 100 36 8 14 13 27 33 38 41 46 52 59 64 69 78 89 93 94 78 77 85
21 28 40 48 88 96 96 96 97 97 97 97 97 97 97 97 100 30 8 16 13 26 33 40 41 43 52 65 68 80 90 92 90 93 97 90 84 87

GFSNE_700_rhum_009.txt.gz
RH
66 67 73 71 71 72 73 77 85 85 70 64 49 51 53 53 52 50 52 54 86 88 85 80 73 74 84 83 71 68 86 72 55 58 61 68 72 75
59 58 71 76 77 81 84 89 94 97 84 81 63 57 60 58 54 60 59 64 80 90 99 99 99 99 100 99 75 82 91 68 54 58 66 72 74 70
74 75 71 68 66 71 78 80 85 88 96 84 86 84 83 84 67 60 62 59 71 93 98 98 99 96 96 77 97 78 89 79 59 62 67 72 80 39
62 66 67 69 72 72 77 80 80 80 86 80 74 75 80 91 93 62 70 67 71 90 98 99 96 100 99 75 81 88 82 97 64 64 68 78 75 8
30 31 37 46 50 66 74 78 75 77 85 88 78 80 87 94 100 78 81 82 83 84 99 95 94 99 98 99 96 84 100 82 66 68 72 84 29 8
32 31 34 36 42 46 62 78 84 85 83 83 89 80 96 94 89 97 82 86 98 93 98 99 100 94 96 99 99 92 98 69 73 72 82 61 8 13
37 39 39 38 38 48 64 69 84 88 89 85 85 83 83 100 70 99 94 99 100 87 97 99 97 99 96 99 91 98 94 85 82 84 87 14 10 17
42 42 43 41 40 41 47 64 79 95 96 97 90 86 84 86 97 99 93 99 99 99 99 99 98 99 98 99 95 99 94 94 86 94 44 8 16 15
57 54 47 47 49 48 43 44 52 69 87 99 100 93 93 92 91 99 81 88 99 99 99 99 100 99 97 99 97 98 97 92 96 67 8 14 17 11
67 72 66 55 56 57 50 43 40 41 53 69 67 71 89 89 90 96 97 99 99 99 99 99 99 98 99 99 98 97 95 97 78 13 12 17 11 14
58 66 76 69 66 66 59 48 40 37 42 52 62 62 64 89 89 99 97 99 98 97 99 99 99 99 98 98 98 96 97 87 18 11 16 10 15 24
33 56 68 77 70 65 62 53 43 37 40 43 52 76 84 87 99 91 96 96 98 99 99 99 99 99 99 99 97 98 93 20 10 14 10 18 26 31
13 28 54 72 73 66 62 58 57 55 50 52 56 91 95 86 99 99 99 99 99 98 99 99 99 98 98 98 96 88 25 9 14 10 20 28 34 41
17 19 41 68 76 68 60 62 74 78 80 72 72 83 99 94 95 99 99 98 98 98 98 98 98 98 97 94 94 29 10 13 11 22 28 34 42 47
20 21 40 72 79 66 62 68 83 98 99 91 91 97 99 98 98 99 98 98 98 98 99 98 98 96 89 83 15 13 12 13 24 30 35 40 46 41
18 19 40 72 79 70 80 92 87 95 97 99 99 99 98 98 98 99 98 98 98 98 98 98 91 90 43 10 14 11 15 25 30 37 42 44 47 46
19 22 36 61 72 67 87 95 93 94 96 99 97 99 98 98 98 98 98 98 98 98 97 91 78 19 11 14 12 20 27 37 43 46 44 44 53 58
18 24 30 45 60 59 90 92 96 93 97 98 98 98 98 98 98 98 98 97 97 97 96 53 11 12 12 15 25 33 39 41 41 45 50 49 55 71
18 21 26 39 50 51 95 95 94 97 99 100 97 97 97 97 97 96 97 97 97 94 24 10 14 12 24 33 41 39 41 45 46 53 64 71 64 73
16 19 24 34 44 53 95 95 96 96 98 97 97 98 97 97 96 98 97 98 79 12 13 13 20 30 38 39 41 45 50 60 68 72 75 81 91 96
14 17 20 29 38 69 96 96 96 96 96 97 97 97 96 97 97 97 96 32 10 14 15 29 36 38 38 43 56 67 77 73 80 92 90 88 96 96
13 15 18 26 34 71 96 96 96 96 96 98 96 96 96 97 97 89 16 13 13 22 35 38 38 41 56 62 70 85 92 95 86 80 80 77 82 90
14 13 17 24 32 75 96 96 96 96 96 97 96 97 96 97 74 11 16 12 31 36 36 37 50 58 68 83 81 68 47 39 56 58 67 83 73 88

GFSNE_700_rhum_012.txt.gz
RH
63 68 69 63 61 72 90 98 93 98 99 98 98 82 74 73 84 83 92 80 81 76 59 63 68 74 58 71 71 78 84 85 86 76 64 82 72 62
47 52 64 68 70 73 72 68 72 84 79 78 76 81 84 84 75 78 80 78 87 85 66 64 65 79 80 81 82 82 86 94 98 72 100 89 77 63
32 31 31 34 43 60 71 74 75 77 80 68 72 78 80 80 77 78 76 75 83 82 69 68 62 76 90 99 98 90 99 94 97 80 97 98 96 83
37 37 35 34 30 30 35 42 55 67 83 76 60 63 68 71 69 71 70 79 77 97 89 72 64 74 89 99 99 99 98 97 87 92 91 89 100 75
29 31 33 40 41 41 38 36 35 38 47 63 52 55 64 75 78 76 74 75 89 96 99 96 89 91 92 99 99 99 99 98 90 99 82 90 89 69
12 17 28 37 41 44 48 46 45 45 43 52 66 62 62 62 78 80 81 74 71 99 98 97 97 98 99 99 99 98 99 99 98 99 87 98 77 85
3 4 6 21 42 52 54 49 52 53 50 51 55 61 61 93 90 87 88 91 89 92 90 98 96 100 97 99 99 99 99 99 99 99 98 97 94 88
4 4 4 6 24 44 61 59 56 56 54 53 49 48 47 69 86 97 98 99 89 84 92 79 96 97 96 99 99 99 98 99 99 99 97 97 83 91
4 3 4 5 13 45 52 64 62 59 62 59 53 45 46 44 57 74 84 81 88 78 90 80 99 99 99 99 99 99 98 98 98 98 98 93 92 70
5 4 6 7 9 38 58 60 66 65 60 57 53 45 46 45 47 57 68 77 85 89 96 95 99 99 99 99 99 98 98 98 98 98 97 91 79 15
8 6 5 7 13 22 52 70 72 66 64 60 52 45 42 46 53 80 85 94 77 90 97 100 100 100 97 99 98 98 98 98 98 98 93 82 19 14
10 9 6 9 15 18 43 80 84 77 68 55 46 40 53 58 66 99 97 98 98 98 100 98 99 100 99 99 98 98 98 98 98 97 85 23 14 13
13 12 9 11 15 19 39 86 87 78 70 64 57 54 63 65 72 91 99 98 99 98 99 98 98 99 98 98 98 98 98 97 96 73 18 14 12 15
18 14 12 14 18 21 44 81 74 73 90 89 78 70 98 96 91 92 93 99 98 98 98 98 98 98 98 98 98 98 98 96 83 44 15 12 16 25
23 16 15 16 22 27 52 68 71 86 99 94 97 95 98 99 98 98 98 98 98 98 98 98 97 98 98 97 97 97 96 61 14 14 12 20 28 34
25 16 14 15 21 29 44 64 60 97 98 97 98 99 98 98 97 98 97 97 97 97 98 97 97 97 97 97 97 79 22 12 13 16 25 31 37 39
29 20 13 15 20 27 42 51 69 96 96 98 100 98 97 97 98 97 96 97 97 97 97 97 97 97 96 66 19 12 12 16 25 31 37 43 42 45
32 24 14 16 19 26 37 43 84 96 97 99 98 98 96 96 97 96 96 97 97 97 97 97 94 43 13 14 13 16 26 35 40 42 43 45 48 54
36 27 16 16 19 25 34 56 94 96 96 96 96 96 96 96 96 96 96 97 98 97 97 31 12 13 13 22 32 38 41 42 42 45 50 57 63 75
35 28 17 15 18 24 36 82 95 95 96 96 96 96 96 96 96 96 96 97 97 70 13 13 15 28 35 42 40 39 44 55 65 71 77 79 83 88
33 29 18 14 17 23 45 94 96 96 96 96 96 96 96 96 96 96 97 92 21 14 16 29 35 38 38 44 58 67 70 79 86 88 89 89 97 100
37 32 17 14 16 22 61 96 96 95 96 96 96 96 96 96 96 96 38 15 15 31 36 38 41 52 61 74 82 80 73 52 37 43 74 87 93 92
39 32 16 13 17 25 90 96 96 95 96 96 96 96 96 95 26 16 15 30 39 39 42 52 64 81 75 34 32 23 22 28 48 56 60 83 96 94

GFSNE_700_rhum_015.txt.gz
RH
39 38 37 37 38 41 47 64 94 86 66 64 76 72 74 80 82 83 76 82 87 86 96 96 98 97 90 87 64 58 72 67 81 93 95 88 94 92
42 40 39 41 41 39 37 36 42 65 89 66 68 74 79 80 78 81 79 78 73 78 93 96 99 99 100 93 79 66 69 72 82 98 99 97 98 88
31 33 34 36 36 38 43 45 45 46 48 31 36 38 44 56 65 75 74 74 75 67 63 73 83 89 97 99 94 74 73 74 78 98 99 99 99 88
4 3 3 4 7 12 22 30 42 46 55 51 37 36 33 30 28 36 46 63 66 70 76 71 72 96 92 98 98 80 78 79 86 95 99 99 98 98
5 4 4 4 4 4 4 4 9 21 45 61 50 42 42 39 36 36 40 55 57 64 87 78 76 80 95 89 99 98 93 96 94 99 100 99 99 99
5 5 5 4 4 4 4 4 4 8 19 48 57 43 44 39 47 47 42 39 38 64 66 74 83 85 82 87 98 98 99 94 99 99 99 99 99 99
6 5 5 4 4 4 4 3 5 12 22 40 47 57 43 44 52 52 51 47 41 40 43 53 76 81 73 85 92 98 99 98 99 99 99 99 99 99
8 6 6 5 5 4 4 4 4 10 19 54 62 70 58 67 58 53 52 49 39 43 48 43 59 64 83 92 90 92 98 98 99 99 99 99 98 99
9 8 7 7 7 8 7 6 5 8 18 53 78 81 80 79 71 59 56 52 43 39 48 48 98 63 75 100 100 87 95 99 99 99 99 99 98 98
11 11 11 10 12 12 9 7 6 7 13 20 55 81 83 80 76 67 57 52 43 38 46 40 56 59 54 82 99 96 98 99 98 98 98 99 98 98
14 15 15 16 18 15 12 9 10 12 13 18 52 82 86 79 72 66 57 59 50 45 52 58 80 63 66 80 98 98 98 99 99 98 98 98 98 98
16 13 17 22 21 18 13 16 20 20 20 31 57 74 77 72 69 83 86 100 100 85 57 66 69 97 93 87 100 98 98 99 98 97 97 98 98 97
24 25 23 24 25 18 16 21 26 30 40 67 79 81 86 88 88 86 94 100 100 100 90 100 93 99 100 97 99 98 98 98 98 97 98 97 98 97
33 28 27 30 27 18 18 22 28 33 41 85 90 93 98 100 100 100 97 98 100 100 100 99 98 98 98 98 98 98 98 98 97 97 97 97 95 91
36 30 33 34 30 18 18 22 26 34 86 93 96 95 94 93 97 98 99 100 97 98 98 98 98 98 98 97 98 97 98 97 97 97 97 95 38 17
37 32 37 38 36 21 18 22 29 67 92 96 95 95 93 97 99 97 96 97 96 96 97 97 97 97 97 96 96 97 97 97 97 95 48 16 13 15
41 37 38 38 32 17 16 20 28 46 93 96 95 94 97 98 98 96 96 96 96 96 97 97 97 97 96 96 97 97 96 72 29 15 14 17 24 31
40 42 42 40 34 17 16 19 26 70 96 95 94 95 96 96 96 96 96 96 96 96 96 96 96 97 97 90 47 17 14 14 15 21 28 34 41 46
44 45 44 40 31 18 18 21 41 96 95 96 95 96 95 96 96 96 96 96 96 96 97 95 76 22 15 14 14 16 21 30 39 43 46 48 50 50
44 48 43 40 28 18 19 24 90 96 96 96 96 96 96 96 96 96 95 96 96 83 29 17 16 18 27 35 39 41 42 42 44 49 56 60 67 72
44 45 44 40 24 18 21 39 96 96 96 96 96 96 96 96 96 96 96 87 34 20 21 34 43 43 42 41 45 54 63 72 82 87 86 87 91 94
46 46 43 37 22 20 22 87 96 96 96 96 96 96 96 96 96 71 28 19 28 46 48 44 47 58 66 75 82 67 45 55 55 46 54 76 90 90
45 47 42 32 20 23 43 96 96 96 96 96 96 96 93 36 21 20 39 51 50 50 60 64 76 75 23 18 19 18 22 29 30 38 47 69 93 85

GFSNE_700_rhum_021.txt.gz
RH
21 14 11 10 10 11 11 10 7 7 7 7 5 5 5 5 5 7 16 16 21 26 34 37 34 40 67 96 82 93 98 99 96 99 99 99 99 96
26 21 15 12 12 13 13 13 12 9 8 8 7 6 5 4 4 4 5 6 6 7 12 20 28 36 36 45 78 90 100 90 98 99 99 99 99 99
13 11 11 12 12 13 14 15 15 14 11 9 8 7 6 6 5 5 5 5 5 5 4 6 11 28 36 41 44 64 83 96 98 90 98 99 99 99
11 9 8 9 11 13 14 16 18 16 14 13 10 9 8 7 6 6 5 5 5 5 4 4 5 7 30 41 39 41 55 66 78 85 91 84 100 99
8 9 10 12 13 16 19 19 18 16 14 18 14 11 10 8 7 6 5 5 5 4 4 4 4 6 16 33 44 42 55 72 70 79 90 85 86 82
9 10 12 14 15 15 15 15 15 15 16 17 15 14 12 10 10 8 6 5 4 4 4 4 4 4 18 31 39 58 62 75 76 85 78 79 74 73
11 12 14 15 15 14 16 16 18 19 21 24 21 21 18 15 13 10 8 6 4 4 4 3 4 5 16 42 41 43 45 42 50 76 89 81 77 62
14 13 14 14 14 16 19 23 26 35 46 79 61 38 27 18 12 11 10 14 36 38 29 12 22 19 15 37 46 44 44 41 40 51 85 89 80 74
14 13 13 17 22 22 23 30 28 29 41 41 39 26 21 17 22 25 29 42 49 39 52 63 69 58 35 42 53 46 39 40 40 50 58 96 75 96
14 18 20 21 28 32 36 70 40 36 34 32 29 22 22 25 38 87 87 88 86 72 90 97 83 78 61 54 50 46 40 37 38 43 61 84 91 89
18 22 23 28 32 38 99 71 35 30 32 28 19 24 35 36 62 100 94 99 86 77 88 95 82 96 98 70 55 49 48 45 41 41 63 70 75 99
20 24 29 35 37 86 60 45 39 35 30 16 16 23 39 64 96 98 97 95 94 80 89 94 93 100 96 63 57 67 68 51 47 41 50 58 68 99
27 30 33 36 73 43 42 43 44 40 28 21 24 30 56 88 96 96 97 96 94 90 96 95 91 99 97 91 90 91 88 82 70 88 86 88 89 98
37 35 34 37 36 38 39 44 45 40 28 30 34 57 77 87 95 96 98 98 98 96 96 100 94 99 98 94 92 91 100 94 90 100 98 95 96 98
41 38 40 38 39 37 41 47 45 32 31 39 73 95 93 91 90 94 98 98 96 96 96 97 96 95 96 94 97 99 97 98 95 96 96 99 97 98
44 40 43 42 41 42 44 42 31 34 72 100 97 92 88 91 95 99 97 97 96 96 96 96 96 96 97 98 96 98 99 95 97 99 95 97 96 96
47 46 45 42 38 40 40 33 30 68 97 96 96 94 94 97 97 96 96 96 96 96 96 96 98 98 98 98 98 98 97 96 97 97 96 97 96 96
50 56 52 46 45 46 39 26 66 97 97 99 97 98 97 97 96 96 96 96 96 96 96 96 96 96 96 97 96 96 96 97 97 96 96 96 96 96
63 60 52 47 48 48 36 64 96 97 98 97 97 97 97 96 97 96 96 96 96 96 96 96 96 95 97 96 95 95 96 96 96 96 96 96 96 96
66 57 50 50 50 41 48 97 97 97 97 97 97 97 96 97 97 97 96 96 90 80 58 31 24 24 27 31 71 89 92 95 96 94 94 91 77 50
59 52 52 52 46 37 95 98 98 97 97 97 97 95 97 97 96 94 90 83 80 73 60 59 56 56 55 49 35 25 21 20 21 22 21 21 21 23
59 51 50 51 38 81 97 97 97 96 96 96 94 74 56 47 47 60 70 70 70 72 79 82 81 79 78 77 71 65 59 59 59 58 58 61 62 59
58 48 50 44 61 97 97 97 97 97 91 42 36 52 70 78 89 96 97 97 98 99 98 76 38 29 31 38 57 80 90 93 95 96 96 94 94 95

GFSNE_700_rhum_024.txt.gz
RH
30 17 10 9 9 8 8 9 13 10 5 4 6 9 14 13 12 10 9 8 6 5 5 6 15 23 30 36 36 34 34 36 67 97 99 97 95 98
8 6 4 5 5 6 6 7 10 19 18 5 5 5 11 12 12 13 12 10 8 7 6 5 5 6 7 9 15 26 30 32 34 38 80 92 98 100
4 5 6 7 8 9 9 10 12 15 22 9 10 7 8 10 12 13 12 11 10 9 8 6 5 5 5 5 5 5 8 22 33 37 61 85 93 98
5 7 8 10 10 11 13 13 14 14 38 30 11 11 9 9 10 13 11 11 10 10 9 8 6 5 5 5 5 5 5 6 20 41 38 65 68 87
6 8 10 12 13 13 12 13 15 18 17 65 18 20 22 18 20 15 13 12 13 13 9 8 7 6 5 5 5 5 5 5 9 32 41 37 59 76
5 6 10 13 12 11 13 16 19 24 25 26 44 83 80 40 33 24 20 18 17 14 11 9 7 6 5 4 4 4 4 5 8 35 39 47 48 73
4 6 9 11 12 16 19 20 29 31 32 89 84 83 54 32 29 27 22 16 13 15 38 60 20 18 8 5 4 4 4 4 6 23 47 72 73 74
6 7 10 14 17 18 20 26 32 50 85 100 92 62 32 34 34 24 21 25 26 18 53 47 32 24 26 22 13 5 4 3 5 26 55 67 76 72
10 12 14 17 18 20 25 32 40 82 100 93 64 44 40 35 26 22 30 64 37 35 77 77 69 73 61 58 52 29 18 12 12 18 37 44 44 42
14 16 16 20 26 34 36 56 98 59 43 44 46 43 40 23 30 40 55 67 72 79 97 88 78 77 77 74 81 63 55 46 45 38 40 36 38 41
14 17 26 30 33 35 65 92 52 34 36 38 40 37 25 26 38 58 74 94 82 83 98 93 92 90 83 75 91 98 76 72 57 45 44 38 38 38
19 25 32 34 33 38 51 41 38 36 37 32 30 21 22 27 54 100 97 95 93 84 98 95 97 96 77 84 91 100 89 67 56 48 42 37 35 38
27 29 34 37 38 40 42 44 44 44 43 40 26 24 37 74 95 97 97 97 95 90 92 97 93 94 93 75 83 90 99 89 68 51 42 39 37 40
31 33 35 42 43 46 45 45 48 51 46 36 37 62 87 92 94 94 98 98 98 96 97 98 94 96 93 88 84 97 97 100 84 58 52 48 54 70
41 42 43 48 51 46 45 49 53 46 44 71 88 89 92 97 97 99 97 98 98 98 96 96 96 95 92 91 94 96 98 99 99 100 96 100 100 99
50 47 52 56 52 48 47 50 45 67 100 99 98 98 98 97 98 99 97 96 96 96 96 96 96 96 96 96 96 96 98 98 98 98 97 98 97 98
56 53 55 55 47 44 46 43 69 97 96 97 97 97 97 97 97 97 96 96 96 96 96 96 96 96 96 96 97 96 96 99 97 96 96 97 98 98
53 59 61 56 48 49 43 63 97 97 98 98 98 97 97 97 96 96 97 97 96 96 96 96 96 96 96 96 96 96 96 97 98 98 97 96 97 96
60 65 61 52 51 49 67 98 96 97 98 97 97 97 97 96 97 97 97 97 96 96 95 96 96 96 96 96 96 96 96 97 97 96 96 96 96 95
68 64 55 53 54 59 97 97 97 97 97 97 97 96 96 96 96 96 96 95 92 90 90 58 68 96 97 96 95 95 96 96 96 96 95 95 96 96
66 57 53 57 58 98 98 97 97 97 96 92 78 69 66 74 84 90 87 78 75 77 72 72 52 28 46 87 96 95 95 96 96 96 95 95 95 95
60 52 53 57 97 97 97 97 97 84 41 44 72 94 96 96 96 96 96 96 96 96 96 95 87 68 55 34 25 58 92 93 95 96 95 92 77 64
54 49 53 93 98 97 96 95 45 38 62 96 97 96 96 97 97 92 49 41 47 68 63 46 58 87 100 87 69 58 41 28 24 23 23 23 25 24

GFSNE_700_rhum_027.txt.gz
RH
6 5 4 4 4 4 4 5 7 4 3 2 3 5 7 10 9 9 9 8 8 7 8 8 9 10 10 7 5 5 20 38 40 41 43 39 66 82
5 4 4 4 4 4 4 4 8 14 12 4 5 6 6 7 10 12 10 9 8 8 8 9 9 8 8 10 7 5 5 11 24 32 37 40 47 53
5 5 5 4 4 4 4 6 9 13 24 8 7 6 6 10 12 18 20 18 13 11 10 9 9 10 9 8 9 7 5 5 6 11 15 25 47 69
6 5 5 5 5 5 6 7 9 14 26 33 13 14 13 14 17 28 59 45 35 18 16 18 42 23 10 9 8 8 7 5 5 5 6 11 30 31
6 6 5 5 6 7 9 12 15 19 33 79 25 23 24 37 52 64 63 30 26 25 26 24 17 14 15 12 9 8 8 6 5 5 4 5 11 21
6 6 6 6 8 10 12 15 21 30 34 42 46 70 97 76 84 69 30 26 24 25 21 14 14 16 16 39 19 9 7 6 6 5 5 5 5 15
6 6 6 7 9 12 30 34 36 70 85 58 74 100 99 63 46 36 39 28 18 18 20 24 54 89 75 71 96 87 35 7 5 5 5 5 5 6
6 6 7 9 12 16 26 34 91 100 90 100 100 100 61 43 36 42 39 30 14 27 40 31 70 63 72 86 85 81 60 65 8 4 5 5 5 6
8 8 9 15 24 30 31 35 45 74 100 99 86 57 47 39 44 40 29 24 22 24 60 56 85 77 81 90 89 86 84 69 44 10 4 4 5 5
10 12 19 24 30 34 51 54 74 47 48 47 51 42 46 45 46 38 34 30 34 48 85 80 86 83 94 93 93 90 87 84 75 21 5 3 3 4
11 20 27 29 32 48 80 99 48 38 41 40 44 46 44 39 40 59 59 87 57 75 91 92 92 89 96 92 94 98 97 91 84 44 13 4 3 3
12 21 29 34 39 66 92 78 49 44 40 38 40 37 35 52 89 100 97 96 96 89 89 95 94 95 85 86 96 98 98 99 100 80 37 14 7 6
20 26 29 37 70 59 67 57 51 52 50 48 40 44 83 88 92 98 100 99 97 93 91 98 94 90 97 90 96 98 97 99 98 88 47 34 39 35
31 32 36 55 54 53 56 50 51 56 53 54 81 88 90 93 94 98 99 99 100 100 95 99 96 97 96 89 95 99 97 97 100 99 80 66 62 58
38 42 46 52 53 54 49 54 58 58 88 95 94 94 96 97 98 96 98 98 98 98 98 98 97 97 97 92 94 97 98 97 100 100 88 68 62 57
43 49 51 53 55 51 49 52 61 99 99 98 97 98 98 98 98 98 97 97 96 97 97 97 97 96 95 95 96 97 98 96 98 100 100 82 72 56
55 52 52 56 48 45 47 65 98 98 97 97 97 97 97 98 98 96 97 98 97 97 97 97 96 96 96 96 97 97 98 97 98 98 98 98 98 99
56 58 58 53 49 51 67 94 97 97 97 97 97 97 98 97 96 97 97 95 95 95 96 96 96 97 96 96 97 97 97 97 97 98 97 98 98 98
61 62 56 51 55 70 98 97 96 97 97 97 96 95 96 96 96 96 96 96 96 96 96 96 97 96 96 96 96 96 96 96 97 96 96 97 96 96
65 60 52 57 70 96 96 96 96 96 80 89 96 97 97 96 96 96 96 96 95 90 96 86 97 97 97 96 96 96 96 96 97 96 95 95 96 96
61 55 57 66 97 97 98 97 89 47 83 97 97 97 97 96 97 97 97 97 96 96 90 77 66 86 96 96 96 96 97 97 96 96 95 95 94 95
60 54 60 98 98 97 97 74 45 92 98 98 100 95 78 68 71 82 58 56 86 96 97 96 78 38 65 96 96 95 96 96 96 96 96 96 96 94
56 53 95 97 97 97 64 47 95 98 98 100 86 56 50 51 49 47 51 62 62 56 50 59 96 97 63 35 94 96 96 96 96 96 96 98 98 97

GFSNE_700_rhum_030.txt.gz
RH
8 7 7 6 6 7 7 6 5 6 7 5 4 3 4 6 7 12 13 10 9 9 9 9 10 30 57 28 40 74 55 15 10 9 6 6 22 35
7 7 6 6 6 7 7 6 5 6 5 4 3 3 4 6 13 20 17 15 12 11 15 41 98 95 81 82 78 100 85 14 7 10 8 5 5 14
6 6 6 6 6 7 6 5 5 8 11 4 4 5 5 8 10 16 23 28 24 24 36 39 30 20 31 77 89 80 83 34 22 9 9 8 5 5
6 6 6 6 7 6 6 6 7 10 18 16 8 10 16 17 19 22 30 42 52 47 50 32 24 29 97 83 32 20 23 55 44 34 10 9 6 5
6 6 7 7 7 6 7 8 12 16 22 46 29 22 21 30 37 36 36 40 45 42 36 29 30 25 15 14 43 90 49 64 53 89 58 9 8 5
7 8 8 8 8 8 11 16 29 38 40 68 95 55 56 50 72 66 47 36 31 32 31 29 23 20 26 29 40 73 88 82 96 87 100 54 8 6
8 9 9 8 10 14 28 38 42 45 88 100 95 90 100 63 55 38 37 31 29 38 26 14 19 22 31 48 70 82 72 64 66 90 100 100 88 7
9 9 9 10 12 16 26 34 58 100 100 100 100 89 56 43 38 40 43 42 24 30 27 15 39 35 52 69 76 86 96 93 87 78 96 98 82 8
10 10 10 12 17 22 26 34 59 97 100 100 86 53 45 43 50 45 41 44 38 51 77 33 64 63 68 72 85 95 96 96 96 98 75 96 57 6
12 12 14 15 22 32 46 73 98 86 56 62 59 52 58 57 64 80 85 88 88 87 94 73 77 79 85 85 91 96 96 95 90 88 74 42 37 5
12 14 19 24 32 61 100 100 80 47 54 48 50 51 56 84 100 99 93 96 86 87 87 95 88 81 83 84 93 97 98 99 100 96 86 53 21 6
12 16 24 36 42 88 100 79 59 54 48 50 47 64 95 98 100 100 100 98 96 90 90 98 91 91 83 86 96 96 96 98 95 88 86 73 28 8
22 24 31 44 74 74 65 64 59 64 61 68 93 90 95 99 100 99 100 100 99 94 92 100 96 94 100 93 96 97 96 93 86 85 89 85 40 9
32 37 44 57 54 58 60 57 61 67 94 94 89 92 95 95 96 98 99 99 99 99 97 98 95 98 97 93 95 98 92 93 91 90 88 85 54 17
46 48 52 55 61 59 55 62 80 100 94 90 94 98 99 98 97 95 98 98 98 96 97 97 97 96 97 95 95 97 96 96 98 97 100 90 73 52
49 53 59 62 62 57 57 86 99 98 97 98 97 97 97 97 98 98 97 97 97 97 98 97 96 97 98 96 97 97 97 97 94 97 100 83 71 62
56 58 62 59 49 52 86 98 98 98 97 98 96 97 97 96 97 97 96 97 97 95 96 97 98 98 96 98 96 98 96 97 99 98 98 100 92 81
59 65 64 52 54 88 96 96 98 97 97 96 97 97 96 97 96 96 97 97 96 96 96 96 97 97 97 96 97 97 96 97 96 96 97 97 99 100
65 64 55 54 88 98 98 98 96 95 96 98 97 97 97 98 96 95 96 97 98 96 96 96 96 96 96 97 97 96 96 96 98 96 98 100 99 98
62 57 52 84 99 98 98 96 67 93 97 97 100 100 89 68 77 98 72 90 96 98 95 94 97 96 97 96 94 94 97 98 97 97 97 97 97 98
57 52 71 98 99 99 94 61 91 98 97 100 98 74 60 53 61 61 62 65 85 82 98 85 95 95 96 96 96 100 99 97 97 96 96 96 93 95
54 55 98 99 100 92 64 93 98 98 99 99 91 88 68 68 60 61 73 79 74 56 68 99 77 95 97 96 95 96 98 98 98 98 97 96 90 91
49 90 99 100 98 62 93 97 98 100 100 99 97 91 88 85 96 90 88 88 88 86 59 79 95 84 96 96 96 95 96 96 96 100 99 98 97 96

GFSNE_700_rhum_033.txt.gz
RH
15 13 11 8 7 7 6 6 6 7 11 12 11 8 6 5 6 9 9 10 10 10 10 10 10 13 68 64 100 100 100 100 100 96 99 100 55 10
13 11 8 7 7 8 7 7 7 8 10 11 10 7 6 8 13 18 22 21 15 17 22 21 59 100 81 100 100 82 68 94 100 100 100 100 96 59
11 9 10 12 11 8 7 8 8 8 8 10 8 5 5 9 12 24 44 31 26 30 29 83 80 34 80 59 47 67 97 93 95 100 99 95 99 98
14 18 16 10 8 8 9 10 9 9 13 10 6 5 11 16 19 22 33 39 41 49 65 44 30 35 28 27 32 43 29 36 36 33 100 98 99 100
21 14 10 10 11 11 10 10 10 11 15 26 19 20 22 38 40 37 33 36 42 37 35 34 35 32 29 25 20 29 47 76 98 89 96 100 84 82
12 11 12 12 12 11 11 12 14 19 26 46 93 74 74 59 60 56 38 37 37 36 33 35 32 26 23 24 21 20 23 27 35 40 51 70 49 46
16 15 14 12 11 13 15 16 22 28 62 100 100 96 92 57 48 42 40 38 37 34 26 33 44 45 40 42 44 42 48 57 60 69 64 77 84 72
18 16 13 11 11 13 17 25 41 100 100 100 100 89 53 47 47 48 46 53 69 85 85 70 84 73 74 73 75 74 70 68 76 82 88 79 82 81
16 13 10 11 14 16 20 32 46 99 100 100 89 54 48 49 60 85 98 97 89 80 94 74 86 84 84 80 84 80 80 77 76 80 84 81 82 86
12 11 12 13 19 31 40 59 100 88 71 62 55 53 67 94 100 100 93 94 89 84 99 85 81 79 85 85 88 92 86 82 86 96 91 88 79 69
11 14 17 25 36 49 95 100 62 50 53 48 53 80 98 97 100 100 95 97 86 79 96 93 82 82 81 83 98 99 99 98 99 100 100 100 100 78
11 16 27 42 53 83 91 70 56 50 47 59 89 97 100 99 100 100 99 97 97 82 94 98 90 97 82 87 96 98 99 100 93 90 94 92 80 74
18 24 37 52 77 60 62 57 52 62 82 95 98 98 97 97 97 98 99 99 96 91 98 100 95 94 97 89 94 100 95 92 87 84 86 84 82 78
31 39 51 62 59 58 55 54 72 96 98 97 96 96 96 96 96 97 98 98 100 99 97 98 96 96 94 90 94 97 98 94 96 98 97 93 85 77
44 49 60 59 58 53 56 87 98 97 92 93 96 96 97 97 97 94 97 97 97 96 98 98 97 98 96 92 95 95 94 96 96 95 99 93 88 63
46 56 59 60 58 58 94 97 98 98 97 97 95 96 97 96 96 95 96 95 94 96 97 97 96 96 96 96 96 96 96 98 96 97 97 98 53 12
55 56 56 51 49 90 96 98 99 97 95 96 95 95 96 95 97 96 95 96 96 95 94 97 96 96 96 98 96 96 96 96 95 96 100 100 83 33
55 59 54 50 89 94 95 95 88 94 95 96 99 96 81 71 71 83 74 94 96 95 95 96 97 97 97 97 94 95 96 94 94 98 97 99 100 100
58 57 49 88 93 96 94 70 91 96 97 99 98 94 83 69 62 51 57 67 92 98 96 96 96 96 96 96 87 94 97 97 97 97 97 97 97 98
57 52 81 95 95 93 74 94 98 98 100 100 100 100 92 75 57 66 80 74 67 95 95 96 96 96 96 97 93 95 98 97 96 96 97 96 95 96
52 63 97 97 95 73 96 99 98 98 99 100 99 100 96 85 86 95 96 95 85 74 92 97 95 94 97 96 98 99 99 97 97 96 96 100 99 95
50 95 98 97 73 93 99 98 98 100 100 100 100 96 95 89 88 92 86 74 86 71 95 94 93 96 96 96 95 96 99 100 98 98 96 96 96 94
70 96 97 76 88 99 97 99 100 100 99 100 99 94 89 82 89 89 81 76 77 96 76 91 95 97 96 95 96 94 95 96 98 97 96 97 96 96

GFSNE_700_rhum_036.txt.gz
RH
11 11 12 12 13 15 18 20 18 18 17 14 13 13 11 10 9 8 7 7 8 11 16 17 16 14 12 15 69 100 100 99 97 97 99 99 100 90
12 13 15 18 21 22 20 15 11 10 13 15 14 12 10 9 9 10 14 17 16 20 22 23 25 27 67 74 92 96 100 100 100 100 100 100 98 99
15 18 20 20 19 17 15 14 14 13 12 14 13 11 8 7 10 24 50 39 33 25 27 25 26 29 26 36 66 86 64 86 99 100 100 100 89 94
18 20 20 21 21 20 18 16 14 12 11 9 9 7 7 8 14 31 51 52 57 42 33 28 26 26 27 32 37 48 47 63 94 69 90 100 100 100
21 23 25 24 21 18 16 14 12 10 11 18 10 10 14 26 40 39 42 51 46 41 38 39 37 33 32 29 28 29 31 46 81 82 68 60 85 94
25 26 22 19 18 15 13 12 12 13 20 31 26 34 62 63 68 68 43 42 39 37 42 60 65 65 62 57 45 28 22 17 15 14 13 13 14 43
24 20 19 17 12 11 13 15 21 30 46 67 71 98 100 64 55 46 45 52 67 67 72 71 78 77 71 74 74 68 58 38 26 26 27 30 30 29
21 20 14 9 8 10 15 23 38 71 75 100 100 80 54 46 49 71 80 82 73 68 86 71 85 76 74 78 76 72 72 70 70 68 55 53 83 100
18 11 8 8 11 14 23 35 52 93 94 81 63 47 46 75 92 94 91 83 71 75 97 76 79 74 83 88 86 84 84 77 73 71 75 72 64 68
10 8 9 13 20 32 41 56 80 49 55 48 47 67 96 99 100 100 89 92 82 88 99 88 79 80 86 88 99 99 94 95 91 86 81 77 77 75
8 9 15 24 36 48 72 56 46 44 42 52 84 97 98 99 100 97 93 93 77 72 96 90 78 80 83 93 99 100 100 100 98 96 95 97 96 96
7 11 22 37 45 52 55 51 45 44 60 78 86 94 100 100 99 99 97 94 88 69 92 93 86 96 84 87 96 99 96 94 94 92 90 94 90 97
11 18 33 45 50 53 53 48 55 86 85 86 89 96 96 96 96 98 100 97 92 86 99 99 94 97 99 88 94 98 96 97 97 96 95 96 98 97
20 30 42 51 53 51 48 69 96 91 90 88 92 93 90 93 94 97 97 98 99 98 97 99 95 98 96 92 95 100 97 97 96 96 96 96 97 99
29 38 49 52 50 48 80 100 96 93 90 88 88 92 96 93 87 82 97 96 97 97 97 97 97 97 98 99 97 92 91 96 97 97 97 99 99 93
33 43 51 52 50 82 97 95 93 91 94 93 91 92 89 79 69 69 72 64 82 95 97 96 97 96 98 100 100 96 96 96 98 97 98 98 89 90
40 46 50 47 77 88 92 90 81 96 93 92 92 91 90 86 73 72 66 66 80 94 94 97 98 97 97 96 96 94 95 97 96 96 98 98 61 38
44 51 48 70 88 90 76 76 96 93 93 94 97 97 92 92 79 81 95 84 69 92 93 95 96 98 98 93 91 95 98 94 92 97 100 97 25 6
52 52 63 89 90 80 82 97 93 95 97 98 96 95 96 95 96 94 87 94 80 93 96 96 96 97 95 93 93 98 97 97 96 97 100 96 48 23
50 54 89 92 85 81 97 95 94 96 96 94 93 93 93 93 93 90 81 82 81 94 97 96 96 94 94 96 95 95 96 96 96 96 98 98 97 100
47 82 94 88 79 96 96 97 98 99 97 98 99 100 100 93 91 91 76 84 94 91 96 96 93 91 98 97 98 97 96 97 96 95 95 96 96 99
56 92 92 81 96 96 96 98 99 98 98 99 99 99 100 100 91 84 84 95 88 81 95 96 93 96 97 95 95 97 97 97 97 97 96 96 96 92
78 93 77 95 96 96 96 97 98 99 99 98 99 100 99 100 100 97 99 100 97 97 94 96 96 96 95 96 96 96 97 96 96 90 95 96 96 96

GFSNE_700_rhum_039.txt.gz
RH
11 10 9 9 11 13 16 18 19 15 9 13 18 17 16 15 13 11 10 9 8 7 6 6 6 7 8 8 13 13 24 51 59 96 98 99 86 90
10 9 10 11 13 16 19 22 23 22 18 16 16 16 14 12 10 11 14 15 15 19 24 29 30 27 22 21 25 28 51 89 96 98 97 98 90 89
10 10 12 14 17 19 20 20 19 18 16 15 12 9 7 8 12 36 40 38 36 29 32 29 32 30 32 36 41 31 32 58 51 90 97 93 96 99
11 12 16 19 20 20 20 19 16 11 9 8 5 6 10 20 24 36 51 58 72 44 33 33 32 34 34 33 37 44 29 26 33 40 45 40 55 66
14 18 21 22 21 21 17 12 8 7 9 14 13 22 26 38 30 40 54 53 42 37 52 65 71 74 72 68 66 65 44 34 46 52 55 79 100 95
20 24 23 23 21 15 10 7 9 11 15 26 31 41 41 41 51 48 40 43 62 74 74 71 73 75 75 74 74 74 75 72 58 34 27 33 50 70
24 24 24 20 13 8 8 10 15 25 33 36 68 57 51 46 45 59 78 72 62 75 82 74 88 80 74 74 74 74 73 69 68 68 66 49 26 17
26 25 19 12 7 8 12 20 35 48 58 73 69 46 44 61 83 78 78 79 60 78 89 71 86 74 77 84 84 83 85 84 76 72 69 66 58 40
25 18 10 6 8 10 18 30 38 47 62 63 49 51 84 88 90 83 80 78 75 84 95 74 86 72 86 85 92 97 100 94 84 80 76 72 70 63
18 9 6 7 10 22 32 39 42 46 46 44 70 92 98 93 96 94 86 89 84 88 98 77 80 77 81 87 98 99 97 95 91 82 82 81 78 74
10 6 8 13 23 35 45 42 38 38 55 81 88 92 96 96 99 96 94 91 80 75 96 88 82 84 86 94 99 97 92 88 87 83 80 78 81 90
5 6 13 25 30 41 45 40 38 70 71 74 81 88 99 100 100 98 96 94 89 72 97 95 86 95 76 89 99 94 86 94 91 89 88 91 96 97
6 10 22 29 36 42 41 46 80 81 79 81 83 89 92 94 89 79 81 86 92 88 99 99 89 99 100 83 97 100 98 100 100 98 96 96 99 100
12 20 28 34 42 41 50 83 87 86 82 84 88 88 84 82 82 75 71 72 85 100 98 100 95 99 94 88 90 98 98 96 96 97 98 98 96 99
24 29 34 42 43 47 89 92 93 83 83 87 86 88 88 89 91 68 64 69 78 91 99 98 96 96 98 97 93 96 93 96 97 97 99 95 97 96
26 32 40 45 50 89 92 94 82 89 91 91 92 92 93 85 88 73 68 79 64 72 98 97 94 96 96 96 96 97 97 92 94 94 92 98 96 97
31 36 41 45 83 87 83 82 97 94 92 95 92 91 86 81 81 89 88 84 76 82 90 97 98 96 98 95 95 100 96 97 96 96 95 81 84 82
34 41 45 77 87 79 77 92 97 94 96 94 93 94 82 80 77 84 82 81 74 88 89 97 93 95 95 94 94 96 98 97 97 97 97 34 27 24
43 47 60 88 82 78 96 98 95 97 96 94 94 89 88 90 86 79 73 66 74 87 95 98 94 89 84 94 96 96 96 96 97 97 99 95 28 8
46 50 83 88 79 96 98 98 96 96 96 94 93 94 94 94 92 84 80 73 68 83 98 98 95 82 84 90 94 94 99 97 97 96 97 87 93 34
44 74 92 80 94 97 99 99 100 97 96 96 97 95 98 97 96 95 92 96 85 86 97 96 92 93 99 97 96 96 96 97 98 98 97 94 98 85
53 90 83 92 98 100 98 97 97 96 96 98 97 97 100 100 97 94 92 90 89 86 95 97 96 95 98 94 96 97 96 96 96 96 97 99 97 97
76 85 89 97 98 98 96 97 97 97 98 98 98 99 100 91 90 90 91 93 93 92 94 100 96 96 96 96 97 97 97 96 96 96 95 95 92 94

GFSNE_700_rhum_042.txt.gz
RH
13 10 9 8 8 10 11 14 14 9 7 8 12 13 12 8 5 6 7 8 10 12 13 12 10 11 14 14 14 14 14 10 9 49 83 100 98 74
11 9 9 9 10 13 15 18 20 21 15 11 11 9 5 5 8 14 20 25 28 29 33 30 32 28 24 24 25 23 23 26 27 53 94 70 100 86
9 9 10 12 14 16 18 20 21 18 14 10 5 4 4 8 15 24 30 31 26 26 29 31 29 32 36 34 27 26 27 41 100 100 100 99 96 88
9 11 12 15 16 19 20 19 16 10 6 5 4 6 13 18 22 26 30 29 28 42 61 69 77 78 72 73 71 66 62 57 54 48 55 96 100 98
11 13 15 17 18 19 18 14 7 5 7 15 18 24 23 25 27 32 33 48 71 73 74 79 84 84 81 82 82 80 74 68 66 64 63 65 99 100
16 17 18 19 19 18 11 6 5 7 16 26 32 34 34 36 36 49 64 69 73 69 81 96 90 91 89 87 83 79 74 71 69 68 67 64 62 53
18 19 20 20 16 8 5 6 9 19 26 40 44 38 34 40 69 75 76 67 63 73 79 77 72 69 68 72 79 86 90 92 82 70 66 66 68 64
18 20 21 15 7 5 7 13 26 33 41 43 34 35 64 77 78 76 81 76 55 75 78 68 81 68 83 86 89 92 92 90 87 86 85 79 78 71
22 22 14 6 5 6 10 17 24 38 47 40 48 80 78 83 83 81 81 79 74 78 88 65 74 72 84 92 98 95 90 84 79 76 74 76 78 78
22 12 6 5 8 14 20 24 32 35 38 68 80 83 89 90 95 91 85 83 70 61 82 69 74 76 80 96 100 100 95 92 88 84 80 78 79 79
12 5 5 10 19 24 28 31 32 39 72 79 82 87 91 96 99 94 87 76 58 47 72 63 77 77 73 86 98 99 96 97 94 90 92 92 89 87
6 5 12 20 25 28 37 36 42 71 68 68 76 86 94 99 99 97 96 84 65 42 70 72 78 91 62 76 96 98 98 98 98 97 95 94 94 98
6 10 17 23 27 34 40 48 77 75 71 70 80 85 87 84 90 87 95 99 71 91 98 97 87 94 100 84 79 95 96 96 93 94 96 96 98 99
8 17 22 25 34 39 54 81 81 72 68 82 84 85 77 82 79 78 88 98 100 100 92 100 94 96 95 86 83 83 94 96 96 97 100 99 98 100
15 23 26 32 39 53 84 86 77 77 87 84 82 84 87 80 79 74 85 91 90 98 100 99 98 95 94 98 95 95 89 82 88 88 94 100 99 97
20 24 31 39 49 87 88 80 88 93 92 90 87 86 87 86 84 80 72 64 56 66 98 97 97 96 94 100 96 95 98 92 85 96 100 67 99 98
24 27 35 40 76 83 78 97 96 95 92 91 89 87 88 87 88 80 72 63 63 61 81 96 97 96 97 94 87 94 96 99 98 96 97 57 96 86
24 30 40 61 84 74 88 88 95 94 92 91 93 95 90 87 87 90 82 74 70 68 87 88 88 84 78 83 88 92 94 100 96 98 98 80 46 41
25 39 49 83 77 89 92 93 90 91 93 95 96 94 91 93 94 91 88 85 83 80 91 94 94 87 71 91 96 93 93 97 95 99 98 76 25 22
29 43 76 82 86 92 93 92 91 92 96 97 96 98 97 96 94 90 89 83 82 78 90 96 96 92 88 96 96 96 98 97 97 96 98 75 54 32
36 64 85 88 95 95 96 96 97 96 97 98 99 97 96 94 90 92 87 92 89 90 86 95 95 95 98 98 97 95 96 97 97 99 98 93 72 80
49 83 88 96 95 95 94 94 96 99 97 98 98 98 97 97 94 87 85 82 89 93 92 94 97 96 96 97 97 98 96 96 95 97 96 96 99 93
76 86 96 95 93 92 94 95 96 96 96 96 98 98 98 95 95 93 90 85 89 94 96 96 96 95 94 93 97 96 96 95 96 95 92 94 92 89

GFSNE_700_rhum_045.txt.gz
RH
15 14 12 9 8 8 9 10 10 10 10 7 7 8 7 4 3 4 8 13 15 14 15 14 15 16 16 19 21 22 33 90 81 84 95 96 63 31
15 12 10 9 10 11 12 12 13 12 7 7 6 6 3 4 8 15 18 20 19 19 20 25 32 41 40 36 32 29 26 27 33 62 79 97 98 90
13 10 10 10 12 13 14 15 14 13 10 6 5 3 3 9 15 24 25 22 21 36 55 57 58 60 59 60 60 60 59 58 59 77 100 100 100 95
11 11 11 12 14 16 15 13 12 10 6 4 3 4 7 14 21 20 22 40 58 59 65 68 67 73 76 74 71 72 72 70 65 61 60 82 99 92
11 12 12 14 16 15 14 12 8 4 4 9 9 11 16 20 21 36 54 58 60 66 66 72 76 77 78 77 77 72 68 68 69 69 67 66 65 90
13 15 17 17 17 15 11 6 4 5 11 18 22 25 25 30 54 60 52 64 62 63 64 67 69 70 67 72 76 83 82 82 82 82 80 77 67 62
16 18 19 19 15 11 5 5 8 13 19 24 40 30 37 60 62 67 66 62 60 64 53 40 40 49 63 69 80 87 87 83 81 84 86 82 79 78
18 19 19 15 10 5 6 12 18 22 30 38 33 47 67 73 71 74 72 66 46 59 46 38 47 39 60 77 92 82 75 74 78 81 83 84 85 81
20 18 15 9 5 5 10 15 18 29 42 39 60 79 75 79 78 74 72 66 58 68 67 39 43 38 69 94 95 92 88 82 81 84 87 88 85 80
19 15 9 5 5 10 15 18 25 36 40 71 80 81 81 86 90 83 76 71 65 65 91 40 50 54 66 87 97 98 97 94 92 92 88 87 90 89
14 7 5 5 11 18 22 26 33 43 72 80 78 79 90 92 97 93 87 74 50 50 86 56 54 65 64 73 82 89 92 95 97 100 99 93 92 95
8 5 7 10 18 22 30 37 46 73 70 61 70 85 90 97 99 98 88 74 70 47 88 59 64 83 50 63 77 86 88 98 94 96 96 99 100 100
5 7 10 18 22 28 37 55 78 73 66 74 79 85 86 86 90 91 92 97 85 79 87 84 76 86 89 74 67 83 87 87 82 94 96 97 97 96
6 10 17 20 26 36 54 79 76 67 79 84 87 85 77 82 86 90 93 89 96 90 76 96 92 97 91 80 80 86 86 91 80 75 84 98 100 100
10 18 20 22 34 47 80 76 71 84 86 84 79 79 84 85 88 88 92 83 80 86 81 97 98 94 93 89 93 97 92 72 80 74 90 96 92 100
14 19 21 26 40 77 81 81 92 90 86 83 82 86 87 85 88 90 85 79 64 64 82 95 96 96 88 99 96 93 93 98 86 89 95 100 80 84
17 18 20 31 65 76 78 96 95 92 88 90 92 87 87 86 88 90 87 82 85 76 58 88 97 97 98 90 84 94 95 97 97 97 99 87 35 46
16 17 26 49 76 76 86 84 90 90 91 93 94 92 89 88 85 85 84 82 80 84 76 84 85 90 89 87 86 92 97 97 96 96 100 79 35 27
16 24 41 74 75 87 84 87 90 93 93 95 95 94 91 91 90 86 85 81 82 88 86 90 94 90 77 73 92 98 95 96 94 98 100 96 66 37
24 39 72 77 87 84 90 94 95 98 98 98 95 98 100 94 94 94 95 88 81 82 92 99 96 94 87 95 94 96 95 97 98 99 99 100 97 53
35 70 80 87 86 90 91 95 99 98 98 99 100 100 100 98 96 98 96 95 89 90 89 92 93 97 96 97 95 94 95 96 97 97 96 96 100 100
61 80 88 86 93 92 92 94 96 99 99 100 100 100 100 100 99 96 97 92 89 85 92 91 94 95 95 93 92 94 94 96 96 95 93 85 95 97
75 85 83 92 92 91 91 93 96 99 100 100 100 100 100 100 100 100 98 96 89 83 87 92 94 93 91 91 88 92 94 91 87 92 92 89 88 96

GFSNE_700_rhum_048.txt.gz
RH
18 16 16 15 12 10 10 9 10 11 11 9 8 7 6 5 4 3 3 5 7 12 13 14 14 15 18 20 22 23 20 18 16 19 17 22 84 76
17 16 15 12 11 10 10 10 11 10 8 7 6 6 4 3 4 6 10 12 15 17 28 40 42 49 52 50 50 49 47 46 46 47 48 78 87 74
17 16 13 12 11 10 11 11 10 10 7 5 5 4 4 5 11 18 22 20 24 44 50 50 56 58 54 56 61 61 58 57 57 57 58 64 100 99
16 13 12 11 11 12 11 11 11 9 7 6 4 4 5 10 19 21 23 47 49 54 60 57 62 58 60 64 65 65 60 57 56 57 57 58 63 100
14 13 11 11 12 11 11 11 9 7 5 4 4 6 8 17 21 30 54 54 58 61 66 64 63 61 54 48 50 60 60 61 65 67 68 65 63 65
13 12 12 12 11 12 11 9 6 4 6 11 13 12 18 26 39 58 54 60 59 63 64 53 46 47 41 39 39 50 60 65 69 72 72 73 75 76
12 12 12 11 12 11 8 5 5 6 12 18 20 27 29 50 60 59 61 62 59 59 51 47 49 45 43 38 50 68 75 74 69 72 75 76 77 77
12 11 10 11 10 8 5 5 8 15 18 25 33 33 66 68 68 66 69 63 47 55 65 30 53 40 50 54 74 79 74 72 75 81 84 84 82 85
11 11 12 10 6 5 5 6 13 20 29 34 42 75 76 71 73 70 68 67 56 63 69 31 52 45 57 72 88 85 81 79 83 91 93 91 84 82
11 12 9 6 5 5 7 14 18 27 36 59 76 77 78 87 91 86 78 64 61 55 79 43 48 46 53 75 86 94 89 83 83 91 91 95 99 94
12 9 5 5 6 11 15 18 24 39 67 75 73 80 88 93 98 92 86 83 70 49 69 54 45 45 52 67 72 75 78 87 92 90 94 94 96 99
10 6 5 6 12 17 20 26 36 68 66 61 74 84 87 88 96 98 94 87 81 52 71 51 45 65 44 56 65 79 80 87 90 90 89 86 97 95
6 5 6 10 15 18 26 38 70 68 62 75 77 84 86 88 92 97 99 96 85 83 83 67 46 63 83 65 62 85 83 85 90 86 90 93 98 97
5 6 12 15 16 19 35 69 71 68 78 80 83 85 84 90 94 96 95 97 95 93 89 90 60 78 83 79 76 78 79 89 92 82 83 82 89 98
6 12 15 13 16 28 65 73 73 84 84 82 82 86 90 90 92 88 89 90 87 97 96 89 80 91 99 90 85 83 88 84 89 92 94 84 65 74
11 14 13 14 25 60 75 81 90 91 89 88 85 86 88 87 90 90 85 80 75 73 91 91 89 100 97 93 91 88 90 94 91 98 94 98 99 56
15 13 14 23 54 72 77 87 91 93 93 93 91 88 88 88 91 94 90 82 79 75 67 82 97 99 98 96 79 84 88 92 97 96 94 96 85 48
14 15 21 47 72 78 81 84 94 93 93 93 93 93 91 92 87 91 94 89 85 76 72 77 79 82 96 98 95 80 87 93 96 97 98 97 75 43
16 21 41 72 79 81 86 89 90 94 93 94 96 98 94 93 96 93 94 89 84 78 87 85 90 93 82 80 86 96 88 94 93 98 98 98 98 77
20 36 70 80 81 89 91 93 96 97 96 98 98 98 100 97 95 95 96 94 90 76 80 93 97 96 94 90 84 95 97 93 94 96 96 98 98 98
28 65 78 80 89 94 94 94 97 98 99 100 100 100 99 97 95 96 93 95 95 84 82 87 92 95 94 95 93 91 96 98 96 93 95 96 96 98
54 77 80 89 92 90 90 94 97 99 100 100 100 98 97 98 97 96 93 91 90 84 83 88 86 89 89 86 88 88 87 95 97 96 98 95 92 89
71 76 84 87 84 82 84 92 96 96 98 100 100 99 98 97 98 99 95 92 90 82 80 83 86 87 86 83 86 81 90 96 94 90 97 96 93 99

GFSNE_700_rhum_051.txt.gz
RH
69 47 20 18 17 14 13 13 12 12 12 9 7 6 5 5 5 4 4 4 4 5 6 11 13 17 24 34 35 35 37 39 39 40 42 42 40 38
60 22 18 17 15 14 13 11 11 10 8 7 6 6 6 5 4 4 5 6 8 14 19 34 43 45 45 47 44 44 44 47 50 50 51 50 53 64
23 18 17 15 14 13 11 11 9 7 5 5 5 5 4 4 5 8 11 14 16 29 45 49 57 54 58 56 50 50 50 48 49 52 49 51 49 52
18 17 15 15 12 11 10 7 6 6 6 5 4 4 4 7 12 18 19 21 47 50 54 59 61 56 62 58 51 49 44 36 31 38 48 48 50 53
17 16 15 12 11 9 7 6 7 7 5 4 3 4 7 14 21 26 33 53 52 56 60 67 62 49 49 47 45 46 43 36 31 36 43 56 65 66
16 15 12 11 8 6 7 8 6 4 4 4 5 8 12 22 32 49 58 57 56 60 62 61 55 50 41 44 45 50 43 35 31 47 62 59 64 66
14 11 10 7 6 8 7 6 4 4 6 9 12 13 21 34 63 63 60 59 58 62 61 48 54 40 41 50 59 61 52 49 61 68 66 70 70 72
11 10 7 7 8 7 5 4 5 7 12 16 18 26 47 64 66 60 61 67 54 57 63 51 51 35 44 47 61 73 65 76 79 73 72 72 72 77
9 7 7 8 8 5 4 5 8 13 19 27 33 62 68 69 72 76 72 69 58 59 74 58 49 33 39 42 71 84 88 92 87 81 79 77 81 84
8 8 8 8 5 5 5 8 11 14 24 41 68 67 68 78 89 88 78 68 58 71 83 75 56 39 35 38 75 90 94 90 81 79 82 83 84 85
8 10 8 6 5 6 10 11 12 17 40 68 64 69 85 87 93 91 79 76 68 65 80 77 57 37 31 34 66 84 79 86 91 93 90 86 82 82
10 9 6 6 7 11 13 13 14 33 62 59 67 79 80 78 81 90 89 83 79 66 89 79 62 63 29 28 59 79 79 89 94 94 90 89 88 89
10 6 6 8 11 12 12 17 32 63 61 70 75 74 78 82 89 93 96 95 86 78 97 91 68 71 74 36 50 72 80 88 94 96 96 100 100 99
7 6 8 10 11 11 17 38 66 67 73 72 72 80 82 83 87 91 91 96 96 91 86 96 72 77 77 61 61 65 76 93 97 95 93 87 93 95
6 8 10 10 10 18 43 68 69 74 73 80 86 86 87 89 90 91 88 92 89 96 95 96 83 82 88 86 78 76 79 89 97 94 87 89 92 96
8 9 11 10 17 45 66 72 78 82 87 89 90 93 92 91 90 94 88 90 84 80 89 91 89 93 91 98 93 86 94 96 90 96 88 84 97 99
9 10 10 15 42 65 70 75 86 89 90 94 93 90 90 88 87 93 93 88 85 86 77 77 90 96 100 100 89 98 86 84 93 98 93 82 90 98
10 10 12 31 65 69 73 84 89 92 93 93 94 93 90 89 87 88 90 88 85 84 85 82 79 78 82 92 96 84 83 86 84 90 97 93 82 93
10 13 22 62 68 72 82 85 89 95 95 96 95 96 97 92 92 88 87 86 84 86 87 86 86 90 77 69 79 98 84 88 81 83 93 97 91 86
14 19 54 71 71 82 84 88 93 97 100 99 97 98 99 97 92 90 89 88 87 82 77 83 88 92 92 82 67 76 97 88 93 84 82 91 96 97
17 46 71 73 79 78 84 91 98 99 98 98 98 97 98 96 94 95 92 92 95 89 76 74 86 92 92 84 73 73 79 92 98 95 86 83 92 97
35 70 74 80 76 77 83 90 90 93 96 97 98 98 97 98 96 95 96 92 89 86 74 72 85 87 86 81 77 78 75 84 100 96 97 97 92 82
66 74 79 74 73 78 80 78 84 93 97 98 97 97 97 97 98 98 98 95 91 76 76 75 87 94 89 84 86 86 86 99 96 92 95 96 97 100

GFSNE_700_rhum_054.txt.gz
RH
63 65 72 62 25 19 16 15 16 16 15 10 7 6 4 4 4 3 3 3 3 4 5 6 9 12 17 27 36 37 41 41 44 43 43 45 48 51
67 74 65 28 19 16 16 16 13 11 9 7 5 4 4 4 3 3 3 4 6 8 13 20 33 41 46 49 46 49 47 45 45 45 46 49 50 57
75 70 32 19 16 16 15 12 10 7 6 5 4 4 4 3 3 4 7 9 11 20 39 46 50 57 58 53 55 54 48 46 44 42 42 40 39 42
75 35 19 17 17 14 12 9 6 5 5 4 4 4 4 4 5 9 12 18 34 50 51 53 58 63 60 54 48 43 38 34 32 31 33 33 29 28
33 19 17 17 14 11 8 6 5 6 5 4 3 4 5 7 12 16 28 46 52 52 54 61 63 63 54 48 45 38 32 32 30 28 27 30 28 30
19 17 17 13 11 8 6 5 6 5 4 4 4 6 8 13 27 46 50 53 50 53 55 63 59 55 58 52 39 40 52 46 40 35 32 35 43 59
18 16 12 10 8 6 6 6 5 4 4 5 7 8 12 33 61 60 55 53 54 56 54 51 51 52 59 53 43 54 54 49 50 54 60 64 68 66
16 12 10 7 6 6 6 5 5 5 7 10 10 10 32 61 63 62 65 67 54 54 55 48 66 54 59 48 46 51 50 57 64 68 79 80 78 74
12 10 7 6 6 6 5 5 5 8 12 12 13 33 58 62 65 75 72 67 55 61 72 62 65 54 57 48 54 52 60 82 82 82 84 86 82 76
9 8 6 6 6 5 5 5 7 9 10 12 35 60 64 70 80 79 71 71 67 70 79 72 61 53 49 50 59 56 81 90 94 90 87 84 82 77
8 7 7 7 6 5 6 7 8 8 14 43 63 66 76 80 77 75 77 76 66 64 79 77 63 54 41 44 56 61 82 90 92 94 91 88 86 85
7 8 8 6 5 7 9 8 7 16 47 59 64 70 70 72 81 86 86 82 78 66 91 74 66 64 33 36 46 63 77 88 93 95 94 91 92 93
7 8 7 6 7 9 9 10 22 53 60 63 67 74 79 83 84 89 90 88 81 80 98 93 77 73 71 48 42 59 78 78 77 87 94 97 96 98
8 8 6 7 9 9 11 28 60 65 64 69 73 77 77 79 80 86 89 90 91 94 94 98 88 84 72 61 51 50 77 82 86 83 90 95 97 95
9 7 7 9 9 11 28 62 65 67 71 74 76 79 81 83 84 85 89 90 85 91 97 100 94 86 80 72 67 61 77 69 91 92 95 93 96 96
7 7 8 9 10 22 61 67 72 79 76 76 79 85 85 82 84 88 83 84 80 77 87 97 95 93 82 81 84 83 91 84 78 84 85 85 96 98
6 8 9 10 17 58 66 74 84 84 83 87 90 89 86 84 84 87 88 84 83 82 77 82 90 86 81 89 84 94 92 79 79 80 82 83 87 98
9 9 10 13 52 65 74 80 82 83 87 91 94 93 90 87 82 86 90 90 88 86 84 86 82 67 60 74 96 92 85 77 72 78 82 82 78 94
10 10 12 39 64 74 80 79 81 89 93 95 95 96 93 87 89 89 89 89 86 89 88 92 84 78 60 52 63 95 87 74 79 71 76 79 81 86
11 13 29 63 70 76 77 80 86 91 94 98 98 96 96 94 91 90 91 91 88 84 82 91 87 80 82 76 58 62 89 91 86 79 75 75 83 86
15 26 62 68 74 74 77 81 86 87 95 95 97 97 98 96 94 95 96 97 99 95 85 78 79 88 90 87 78 71 75 94 98 95 87 85 82 78
21 63 69 74 73 73 75 80 83 93 96 96 98 98 97 98 96 97 99 96 93 90 77 74 90 91 94 89 82 83 84 88 96 99 97 97 91 80
56 72 76 74 74 73 74 79 89 94 97 98 98 98 97 96 98 100 99 96 90 80 90 93 92 94 96 96 97 97 98 97 92 87 97 97 94 93

GFSNE_700_rhum_057.txt.gz
RH
71 72 68 66 68 68 38 20 17 17 18 17 12 9 6 5 4 4 3 3 2 2 3 4 5 7 10 14 25 40 40 41 46 47 45 45 45 44
74 71 69 72 70 41 20 17 18 16 15 11 8 6 5 4 4 3 2 3 3 4 6 9 15 25 35 43 48 48 49 54 51 49 50 51 49 48
73 70 74 72 41 20 17 18 15 12 10 8 6 5 4 4 3 3 4 5 7 12 24 35 45 45 49 49 51 52 52 51 48 44 42 41 42 44
73 77 76 44 20 18 18 14 11 8 7 5 5 4 4 3 3 5 7 10 25 44 46 49 49 50 56 57 57 52 48 44 40 36 30 27 28 30
82 81 40 19 18 17 13 10 8 6 5 5 4 4 3 4 6 7 10 33 46 47 46 49 52 56 58 57 54 51 50 47 39 30 26 27 29 31
90 33 19 19 16 13 10 8 6 5 5 4 4 4 5 6 7 12 34 44 43 46 48 55 50 54 55 53 55 61 63 55 36 30 32 32 33 38
24 19 18 14 12 10 8 6 5 5 5 4 4 6 7 8 17 42 44 43 45 45 41 46 48 57 58 61 64 66 67 56 43 38 32 33 43 56
19 18 14 12 9 7 5 5 5 5 4 6 7 7 8 18 51 49 47 45 33 49 51 50 60 57 58 58 63 67 64 51 44 40 38 40 52 67
17 13 12 10 7 5 5 5 5 5 7 8 7 9 23 56 53 51 52 50 52 62 61 53 61 54 58 57 67 68 68 60 48 46 45 54 67 72
13 12 9 6 5 6 6 5 5 6 8 8 13 38 56 57 61 63 62 63 62 69 74 61 61 54 58 56 65 65 74 69 59 61 61 75 83 86
11 8 6 6 6 6 5 5 5 6 8 21 54 60 66 71 74 74 78 66 60 67 77 76 63 55 52 52 64 66 72 74 83 92 88 92 91 90
8 6 6 6 6 6 6 6 6 7 16 52 60 64 71 77 82 84 83 77 74 63 83 74 68 73 44 43 53 63 65 72 89 90 94 95 94 89
6 6 6 5 5 5 7 7 8 17 51 53 62 72 76 79 83 87 90 86 80 72 93 93 81 85 82 57 51 58 64 71 78 84 91 90 95 94
5 5 4 4 5 7 8 8 23 57 58 64 70 73 74 81 84 87 91 92 94 88 92 100 94 90 86 72 62 54 62 72 77 77 84 86 89 95
5 4 6 7 8 8 9 28 60 61 67 69 71 75 79 82 87 87 87 92 91 97 97 98 100 87 89 82 72 57 58 61 78 82 79 74 75 84
5 7 8 8 8 9 31 66 71 74 69 73 79 82 87 91 90 89 80 81 76 81 90 95 95 90 86 83 72 66 77 69 66 70 65 64 69 76
7 8 9 8 10 34 65 72 78 76 79 83 85 88 91 91 89 91 90 84 78 75 75 86 91 90 87 85 76 80 79 72 76 65 63 58 64 71
9 10 8 9 29 60 66 69 78 81 82 84 92 94 91 90 87 91 95 92 86 84 82 88 85 76 64 60 82 78 80 73 66 63 68 69 60 70
10 10 10 22 58 67 65 72 77 80 88 95 93 94 93 91 94 94 94 90 86 87 89 90 79 74 60 46 66 94 96 76 72 70 78 77 74 74
12 11 16 57 63 64 68 73 78 89 96 93 94 97 98 94 91 93 92 90 88 83 77 87 87 82 86 79 62 70 100 92 90 84 81 80 81 80
13 15 54 63 66 67 72 77 87 94 91 94 98 94 94 97 95 97 94 97 99 95 81 83 96 99 100 95 85 80 84 98 99 100 99 89 80 80
16 45 64 68 70 71 75 82 92 92 92 96 94 98 100 100 98 96 98 98 97 96 95 95 97 97 99 96 91 90 82 83 93 98 99 98 97 87
28 66 69 74 76 75 76 84 90 93 95 95 98 100 99 96 98 99 98 100 99 94 97 96 96 97 98 96 98 95 92 94 92 90 96 99 98 98

GFSNE_700_rhum_063.txt.gz
RH
99 100 100 100 100 84 82 79 75 70 69 68 52 22 20 20 18 15 12 9 7 6 5 4 3 2 2 2 2 2 4 10 18 24 27 31 31 32
98 94 100 99 90 84 84 80 78 77 74 57 22 20 20 16 13 10 8 6 5 4 3 2 2 2 2 3 6 18 26 30 31 33 36 36 36 39
100 100 99 100 97 92 88 83 85 78 48 21 20 18 14 11 7 6 5 4 4 3 3 2 3 4 5 19 28 30 32 30 34 36 38 39 40 43
100 100 99 98 98 97 88 90 71 22 20 22 18 14 9 6 5 4 4 3 3 3 4 4 5 17 31 30 29 30 28 28 28 30 30 34 34 35
99 99 99 99 98 92 95 49 20 20 17 15 12 8 6 5 4 3 3 3 4 4 6 16 38 37 34 33 32 27 26 28 32 36 40 42 41 36
98 98 98 98 97 84 23 21 18 15 12 9 6 5 4 3 3 3 3 4 4 13 39 39 34 34 36 37 34 34 36 41 40 42 45 48 49 45
98 98 98 98 33 21 20 16 14 10 6 5 4 4 3 3 3 4 4 5 14 41 40 32 41 43 48 48 47 46 48 48 44 43 44 47 50 50
99 98 36 21 22 18 14 12 7 6 5 4 3 3 4 4 5 5 9 26 29 37 44 37 48 45 53 50 50 50 53 55 52 49 51 50 52 50
65 22 22 20 16 13 9 6 5 5 4 4 4 5 5 6 8 24 40 38 35 42 52 38 56 52 57 51 54 59 64 65 58 56 56 56 52 50
22 20 17 14 10 7 6 5 4 4 4 5 6 6 7 24 44 43 42 44 43 54 75 48 63 55 55 56 66 74 75 69 66 66 65 61 56 56
18 15 12 8 7 6 5 4 4 5 6 7 7 20 48 54 60 51 56 54 51 57 75 85 72 66 64 58 65 71 77 81 74 72 70 69 64 62
13 9 7 6 5 4 4 4 5 6 6 6 33 51 54 58 65 70 72 72 81 70 79 89 73 76 57 49 52 57 66 74 79 72 74 72 70 61
8 7 6 5 5 5 5 6 6 6 7 32 41 50 58 67 75 86 91 93 90 84 91 100 74 72 77 58 48 56 64 68 72 72 74 71 68 65
7 6 5 5 5 6 6 7 7 9 36 43 51 59 66 76 81 84 85 94 96 97 92 99 87 87 83 69 57 56 64 72 71 66 67 64 65 67
6 6 5 6 6 7 7 7 15 39 46 53 61 71 74 71 78 78 80 83 82 93 100 97 94 89 88 82 75 62 68 59 63 59 62 64 67 71
6 6 6 7 7 8 8 22 45 50 56 61 72 77 75 73 77 79 77 79 75 78 92 100 97 95 88 85 79 66 70 68 76 80 70 60 66 70
6 7 8 9 10 9 25 51 56 60 66 75 81 76 74 74 76 82 83 79 80 82 82 95 100 100 97 97 89 94 95 91 86 81 80 73 74 73
8 9 11 12 10 22 54 60 63 66 75 81 80 78 77 78 76 75 81 90 90 89 92 96 91 88 86 84 97 90 83 80 80 79 79 75 68 75
11 14 14 12 16 55 62 63 66 71 81 82 81 84 83 79 82 81 83 89 88 92 96 98 91 91 82 72 89 98 93 83 89 90 95 93 81 78
16 15 15 14 55 66 69 69 70 78 82 84 86 82 87 84 80 78 86 95 93 90 91 99 98 96 92 89 81 91 98 92 91 88 85 87 82 76
12 13 13 51 67 72 74 71 73 77 80 79 80 83 84 79 78 81 83 96 96 97 95 96 98 98 98 97 92 94 97 98 97 96 94 93 85 82
10 13 48 65 74 79 74 73 75 80 82 80 81 81 83 86 79 76 80 93 96 97 94 96 96 96 99 96 97 97 97 95 97 97 98 97 98 91
14 51 65 77 82 80 70 74 73 78 79 76 79 82 85 82 79 73 76 89 96 96 97 93 96 96 97 96 97 94 92 94 89 92 97 97 97 94

GFSNE_700_rhum_066.txt.gz
RH
100 88 100 90 94 100 100 100 100 94 83 82 86 84 72 51 21 21 20 18 15 12 9 8 6 6 5 4 3 3 2 2 2 2 5 13 18 23
100 93 99 94 99 98 100 98 100 94 90 85 84 72 36 21 20 18 14 11 9 7 6 5 4 4 3 2 2 2 2 3 7 18 25 26 26 27
99 100 98 95 99 99 94 98 99 98 90 87 75 26 21 18 15 10 7 6 5 4 3 3 3 2 2 2 3 4 7 20 28 28 25 24 24 28
100 99 100 100 100 100 98 98 97 98 93 59 22 21 16 11 7 6 5 4 3 3 3 3 3 3 4 5 13 27 32 30 25 25 24 24 27 26
100 100 100 99 99 99 97 97 97 80 22 22 19 13 8 6 6 4 3 3 3 3 4 4 6 16 30 34 33 31 31 29 28 29 31 33 34 32
99 100 100 99 98 99 97 84 29 21 18 14 9 7 6 4 4 3 3 3 3 4 12 25 36 37 36 40 39 38 38 39 38 37 36 35 34 36
100 98 99 98 98 94 36 21 17 15 10 7 6 5 4 4 4 4 4 3 5 21 29 30 37 41 50 51 52 53 54 52 49 46 43 41 39 40
99 95 96 97 30 22 18 15 12 8 6 5 4 4 4 4 4 4 6 17 19 26 28 28 45 46 55 56 60 62 60 56 53 51 50 46 47 49
98 93 34 22 20 16 12 8 7 5 5 4 4 4 5 5 6 16 27 28 31 44 50 40 62 58 64 66 70 73 76 74 68 62 57 54 55 52
35 23 20 16 12 8 8 6 5 5 5 5 5 6 6 13 29 29 36 42 50 59 65 43 59 52 57 60 67 76 89 93 85 76 68 63 61 57
20 16 12 9 8 7 6 6 5 5 5 6 7 9 31 40 44 47 57 53 43 50 61 62 49 46 46 49 58 64 72 93 94 87 79 78 77 77
13 10 8 8 7 6 6 5 5 5 6 7 15 42 46 53 62 67 59 52 56 48 71 58 58 64 38 43 50 62 69 77 75 76 75 75 72 65
9 9 8 7 6 6 5 5 6 6 7 14 38 46 58 67 71 66 64 66 64 67 83 81 67 73 70 47 41 56 65 74 78 76 79 78 73 70
8 8 7 6 6 6 6 7 7 7 16 41 51 59 66 68 64 65 68 70 70 80 90 94 83 86 75 59 47 48 60 61 60 60 63 65 65 64
8 7 6 6 6 7 8 9 9 24 45 53 60 68 66 58 66 69 72 73 70 85 93 100 94 88 91 87 82 74 76 66 82 72 67 60 60 69
6 6 6 7 8 10 11 10 27 48 56 62 68 68 61 63 71 73 67 67 70 80 90 95 98 100 94 93 83 74 85 81 89 92 76 69 71 77
5 6 8 11 12 14 12 34 54 60 67 72 73 65 63 65 69 74 70 65 74 81 85 95 98 95 95 97 92 96 97 90 89 80 78 76 80 82
7 9 11 12 13 12 42 63 64 68 71 74 75 67 65 69 68 70 69 72 78 85 89 92 90 81 79 79 95 84 75 78 81 85 89 81 73 84
8 9 8 10 12 48 62 66 69 69 72 75 71 71 71 73 77 74 74 75 80 88 92 95 93 94 80 68 89 98 90 95 90 86 89 88 75 78
7 6 8 14 51 64 68 67 66 70 76 74 76 75 76 81 82 84 78 74 81 84 86 99 99 98 96 92 85 94 98 92 93 92 92 88 94 91
6 8 21 49 64 70 68 64 67 69 70 72 76 78 76 72 77 86 82 80 82 93 90 96 100 100 100 98 89 86 95 97 97 95 92 94 91 85
9 32 49 63 69 70 63 65 69 68 71 72 70 70 68 69 72 81 85 73 71 89 92 93 96 95 98 96 93 87 71 74 92 96 94 97 96 90
35 47 61 66 67 66 62 64 64 63 65 66 67 66 66 69 72 78 78 72 74 87 97 90 90 97 98 97 98 93 87 85 86 84 99 97 96 95

GFSNE_700_rhum_069.txt.gz
RH
96 100 95 97 100 99 100 96 99 100 99 100 100 98 96 96 94 86 67 26 22 21 18 13 10 9 8 6 5 4 4 3 2 2 2 2 2 2
95 98 100 98 93 100 100 100 100 100 99 99 99 97 98 95 80 32 22 21 18 13 9 8 7 5 5 4 3 3 2 2 2 2 3 4 7 12
93 97 100 93 98 99 97 100 99 100 99 99 98 98 97 63 22 20 16 11 9 7 5 4 4 3 3 2 2 2 3 3 5 10 17 24 31 34
100 97 98 100 99 99 100 99 98 99 100 99 96 77 25 20 16 11 8 7 5 4 3 3 3 3 3 4 6 11 15 18 21 24 28 28 26 27
93 98 99 99 100 99 99 99 98 98 98 94 53 22 19 11 8 6 5 4 4 4 3 3 5 12 18 21 21 21 22 25 28 29 29 29 32 35
94 96 100 100 98 97 99 99 98 97 74 29 18 12 9 7 5 5 4 3 3 4 7 16 20 26 34 33 34 36 38 40 39 37 36 37 39 41
99 100 99 99 98 99 99 94 47 22 17 11 8 7 6 5 4 4 4 3 4 15 21 29 42 47 48 49 53 56 58 59 60 58 60 59 55 50
99 98 99 98 97 95 54 21 16 11 8 7 6 6 5 4 4 4 4 7 15 32 32 30 36 26 30 33 40 47 54 60 66 69 70 68 64 60
98 98 98 94 78 25 16 12 9 8 7 6 5 4 4 5 4 5 16 28 38 45 29 24 35 22 30 31 43 49 53 58 62 63 69 75 74 67
97 91 62 30 16 11 9 8 7 6 6 5 5 5 5 6 9 24 36 40 41 41 42 34 36 33 36 32 39 50 60 64 68 66 66 70 72 73
48 22 14 11 9 9 8 7 6 6 5 5 5 6 6 20 36 44 54 46 34 45 56 48 47 42 44 40 37 45 51 58 65 70 74 73 72 71
13 11 10 9 8 8 7 6 5 5 6 7 7 12 34 47 55 59 52 43 50 48 62 50 55 57 42 50 50 58 51 58 64 67 68 66 63 60
11 10 9 8 7 6 5 5 6 7 8 8 24 43 54 62 68 63 58 59 58 58 69 65 60 71 71 59 56 66 69 69 54 55 62 67 66 63
10 9 8 6 5 5 6 8 8 9 9 33 48 57 64 69 68 64 70 69 63 69 71 81 74 79 77 70 65 66 73 68 65 66 70 71 69 66
8 6 5 5 6 7 8 7 9 11 39 50 58 64 67 61 64 66 72 68 62 73 79 89 89 86 87 81 74 73 70 69 86 80 71 70 73 76
5 5 5 5 6 5 6 9 18 45 54 58 63 65 60 61 68 67 63 61 55 62 82 92 94 95 88 88 87 76 92 86 81 79 77 76 80 81
4 4 5 5 5 6 9 29 49 57 60 63 65 62 61 64 72 74 74 66 60 59 74 89 94 96 94 96 82 100 87 80 91 93 89 81 92 97
3 4 4 4 6 11 40 52 58 60 61 64 65 63 65 71 70 73 74 75 69 70 80 92 90 80 78 79 94 75 77 70 75 79 78 71 82 96
3 4 4 6 20 44 55 58 58 60 61 64 65 66 65 64 63 66 70 74 72 70 77 94 89 87 76 65 82 96 72 77 80 77 81 78 72 94
4 4 9 30 45 54 55 53 56 59 62 62 65 67 64 62 64 65 68 74 74 64 69 94 97 94 97 86 70 82 98 88 81 77 75 74 85 84
5 12 33 46 52 54 52 52 53 55 56 57 59 61 61 62 66 69 71 79 81 71 61 82 97 100 96 88 79 80 89 99 97 92 90 82 82 80
11 31 46 52 56 57 54 53 55 55 56 54 56 57 58 62 68 70 73 73 70 64 59 71 86 86 91 92 84 86 83 87 100 97 97 98 96 83
26 42 52 56 56 58 60 58 55 57 58 60 61 59 55 56 68 72 65 60 65 65 59 61 83 88 93 97 97 92 91 88 86 77 89 97 97 97

GFSNE_700_rhum_072.txt.gz
RH
99 100 99 99 97 89 100 99 98 95 99 97 100 99 99 98 98 100 98 93 89 78 36 23 22 17 12 10 9 8 7 6 4 3 3 3 2 2
99 99 99 97 88 99 88 96 99 96 96 99 99 100 98 99 98 98 98 87 51 24 21 18 13 10 8 7 6 4 3 3 2 2 2 2 3 3
99 100 99 100 100 100 95 97 98 100 99 99 98 98 98 98 98 90 82 58 26 16 10 8 7 6 4 3 2 2 2 2 4 6 8 10 12 14
93 99 100 98 100 100 86 98 100 99 98 98 98 98 98 98 90 83 24 15 10 7 6 5 4 3 2 2 3 5 9 11 12 14 15 15 16 16
93 98 90 95 92 93 100 99 98 96 98 99 96 96 72 34 17 11 9 7 6 5 4 3 3 3 6 12 15 19 22 23 21 21 23 28 33 31
96 93 86 83 100 97 98 100 98 97 98 98 84 35 16 11 9 8 7 6 5 4 3 3 7 16 25 28 28 23 18 14 12 12 15 18 25 36
93 90 99 95 99 100 98 97 98 94 96 79 20 11 8 7 6 6 5 4 4 4 6 16 29 35 35 29 26 18 17 16 16 17 15 18 19 27
100 96 94 97 97 98 97 97 95 44 14 10 9 8 7 6 5 4 4 4 4 21 24 32 37 27 31 30 25 25 22 17 17 17 17 23 26 35
98 99 100 98 97 97 79 26 14 10 10 9 7 7 6 5 5 5 6 8 20 41 43 30 37 35 38 40 44 45 36 27 28 27 24 31 34 39
100 98 98 93 65 22 13 10 10 8 7 7 6 6 5 6 6 7 17 30 40 49 37 30 42 37 44 48 52 56 61 49 37 35 32 33 35 38
97 90 28 15 11 10 10 9 8 7 6 6 5 6 6 7 12 28 44 49 44 38 44 43 40 41 46 52 56 63 65 65 63 49 38 37 41 44
15 12 11 11 10 10 9 7 6 6 6 6 6 7 8 25 43 54 57 48 40 38 53 41 38 47 43 51 58 66 70 72 68 70 68 61 54 46
12 12 11 10 8 6 5 5 5 6 6 6 9 23 44 56 62 62 51 46 47 51 58 45 43 57 63 59 57 70 74 70 64 65 63 64 66 66
11 9 7 5 4 4 4 4 4 5 8 20 42 52 57 62 61 53 55 54 54 62 56 58 58 69 72 68 65 67 74 70 66 70 68 68 73 78
6 4 4 3 3 3 4 4 6 12 36 46 51 54 58 56 54 54 60 61 60 72 71 72 68 74 81 80 73 70 70 63 78 71 79 84 87 90
3 3 2 3 3 3 4 7 25 42 47 48 52 56 55 57 62 61 59 59 58 64 74 70 66 76 85 89 79 69 86 77 71 87 83 80 91 98
2 2 2 3 3 4 14 34 41 43 46 50 51 53 56 58 59 57 57 57 59 61 61 66 65 72 84 91 89 97 88 84 80 78 79 70 81 94
2 2 3 3 5 19 35 39 41 43 46 50 52 53 55 56 56 59 60 63 64 69 71 67 62 72 82 83 93 81 78 76 76 73 75 68 61 82
2 3 3 7 24 35 40 42 43 46 49 50 52 53 52 53 55 58 65 68 68 73 76 76 64 70 80 70 79 97 81 76 76 77 85 82 76 78
3 4 8 25 35 40 42 43 46 48 48 48 49 50 51 50 52 57 66 69 66 64 66 78 72 70 85 84 67 76 99 93 85 74 79 81 88 89
3 6 21 34 40 42 44 45 46 48 50 52 55 57 58 54 51 52 60 70 61 51 51 67 74 74 85 94 83 74 84 97 96 90 88 93 85 74
4 12 29 38 43 45 48 51 53 54 56 57 58 60 63 64 54 49 51 62 64 53 42 44 62 68 74 95 90 85 86 91 99 97 98 98 95 85
4 19 35 43 47 54 60 64 66 68 69 70 71 68 65 67 63 47 47 54 64 59 48 41 58 69 69 95 93 90 90 84 84 80 88 96 96 97

GFSNE_700_rhum_075.txt.gz
RH
69 87 86 89 97 98 99 100 93 100 98 100 100 100 100 100 99 99 100 99 98 100 100 98 95 65 35 24 18 13 11 9 7 5 4 3 3 2
68 83 90 95 99 98 99 100 99 100 99 99 98 100 100 98 96 98 99 97 98 97 96 89 69 30 20 14 10 8 6 4 3 3 2 2 2 3
77 83 87 92 100 99 100 99 100 98 99 99 97 98 97 98 94 96 98 94 95 94 85 67 30 13 10 7 6 4 3 3 2 2 3 6 9 10
74 80 90 94 93 100 100 99 100 99 98 100 93 91 95 93 96 100 97 67 59 22 13 9 7 7 5 4 3 2 2 4 6 10 14 14 14 13
66 82 96 100 98 99 99 94 89 94 93 98 98 99 96 96 94 93 77 24 10 8 7 6 5 4 3 3 4 7 12 17 20 18 16 13 10 9
94 100 100 100 90 99 84 87 90 96 100 99 98 96 97 87 40 13 9 8 7 6 5 4 4 4 5 11 19 28 27 22 19 18 13 11 11 10
99 87 99 90 98 95 99 94 96 98 97 97 95 80 22 11 10 8 7 7 6 4 4 4 4 10 25 36 34 29 28 25 22 18 18 18 15 12
100 97 96 99 100 98 98 98 97 98 80 20 14 11 10 9 8 7 6 5 4 6 5 12 34 38 36 30 35 34 33 34 35 34 29 26 20 16
98 99 98 98 97 96 96 97 79 29 14 11 10 9 8 7 6 5 5 5 7 28 36 36 39 29 30 36 36 38 43 46 44 42 40 37 35 28
97 93 96 96 96 83 21 13 11 11 10 9 8 7 6 5 5 5 7 18 39 52 44 29 31 29 36 37 42 49 57 61 58 52 48 46 47 49
92 90 39 18 14 12 12 11 10 8 7 6 5 5 5 6 7 19 40 47 45 40 38 37 36 33 35 42 53 61 65 63 61 59 58 58 57 54
16 14 13 13 12 10 9 7 6 5 4 4 4 4 6 16 35 44 50 48 37 36 49 36 35 38 35 45 53 61 67 69 65 62 62 62 58 55
14 13 11 9 7 5 4 3 3 3 3 3 5 12 32 42 49 52 45 40 42 52 60 48 40 43 43 44 53 64 69 66 68 64 64 65 67 66
11 8 5 4 3 2 2 2 2 2 4 14 30 38 44 50 51 48 50 53 55 61 64 64 54 52 47 46 56 64 72 66 68 70 65 66 76 83
5 3 2 2 2 2 2 2 3 11 28 35 40 45 48 50 51 52 52 51 52 58 63 64 63 60 56 55 62 70 75 66 80 77 71 70 79 77
3 2 2 2 2 2 2 5 19 31 35 39 44 46 48 48 49 49 49 52 52 56 65 69 65 66 59 58 67 84 87 76 79 84 68 66 78 83
2 2 2 2 2 2 8 24 32 36 38 40 42 44 46 47 48 48 50 53 57 55 53 66 73 71 65 60 65 88 90 89 86 77 78 72 71 77
2 2 2 2 3 11 27 32 36 37 38 39 40 40 42 44 45 48 49 51 54 54 48 49 50 58 63 60 71 86 82 72 68 72 79 72 64 85
2 2 2 3 8 25 31 35 36 37 40 41 42 45 46 49 52 50 47 46 47 53 59 56 45 46 54 53 57 90 94 88 85 84 84 82 73 77
2 2 3 6 19 30 35 38 39 42 44 47 49 51 53 55 59 61 56 45 43 44 53 65 60 46 49 63 48 64 97 91 87 82 78 77 78 78
2 2 3 9 25 34 38 40 43 47 50 55 60 63 65 64 64 66 66 58 45 45 49 63 70 48 41 56 57 64 93 97 96 91 86 81 76 67
2 3 4 11 27 36 40 45 52 57 60 63 65 67 69 72 72 70 69 66 47 45 51 62 65 56 41 50 58 64 87 95 98 96 98 97 90 74
3 3 3 13 28 39 45 54 60 64 66 68 70 70 72 73 75 74 70 64 46 46 54 57 58 44 40 44 56 61 94 92 90 85 96 96 96 98

GFSNE_700_rhum_078.txt.gz
RH
69 72 75 82 77 77 83 98 100 99 99 100 99 98 99 99 99 98 93 100 100 99 100 99 100 100 94 94 93 85 58 24 16 12 9 7 5 4
66 70 73 76 79 82 89 99 99 100 92 99 100 100 97 94 97 100 96 95 98 96 93 98 96 90 94 97 86 54 18 12 9 7 5 4 3 3
61 65 72 77 77 80 96 97 100 100 97 99 99 99 100 99 100 95 95 96 92 89 95 94 73 55 36 16 11 10 8 7 5 4 3 3 3 4
45 46 50 61 66 93 98 100 99 96 98 100 99 100 98 99 100 97 94 94 99 98 91 67 23 12 9 8 7 6 4 3 3 3 4 5 8 12
59 56 53 55 97 99 99 86 99 100 94 83 86 94 97 94 96 100 100 91 37 13 10 9 9 8 6 5 4 3 3 4 6 10 15 18 17 17
72 67 85 84 99 87 91 99 99 98 95 91 88 88 98 99 87 53 17 11 9 8 8 7 6 4 4 4 5 9 16 22 24 21 20 22 23 22
78 88 94 96 99 100 99 100 98 98 94 94 95 97 71 20 13 10 10 9 7 6 5 4 4 4 10 21 33 33 28 25 25 28 30 30 30 32
94 100 99 99 98 98 97 98 97 93 90 88 40 13 11 10 9 8 7 4 4 4 3 9 14 27 38 36 28 28 31 34 36 38 38 38 38 39
96 99 96 98 96 97 95 95 84 30 15 12 11 10 9 8 5 4 3 3 6 15 21 35 36 30 30 32 33 34 36 39 45 47 47 46 45 45
87 88 87 93 90 62 23 14 12 12 11 10 8 6 4 3 2 3 5 17 35 39 32 27 26 26 31 34 36 40 45 50 54 56 55 53 51 51
77 52 25 15 14 13 12 10 9 7 5 4 3 2 2 2 7 23 33 37 36 33 32 28 32 27 31 38 46 54 62 65 64 62 61 60 58 56
15 14 13 11 9 7 5 4 3 2 2 2 2 2 8 22 29 32 36 35 34 41 42 36 37 35 26 33 38 46 58 68 66 68 65 62 58 54
13 11 9 6 4 3 2 2 2 2 2 2 6 18 24 28 32 36 39 40 43 46 47 42 35 38 40 33 31 42 58 66 70 70 68 66 65 66
11 7 4 3 2 2 1 2 2 2 3 14 22 27 31 33 35 38 41 44 46 50 54 55 46 50 49 46 41 41 47 63 74 74 71 70 69 68
7 4 3 2 1 1 2 2 2 7 20 26 29 30 31 35 38 40 44 46 49 54 60 64 58 52 44 43 42 45 45 57 73 73 72 69 65 64
4 3 3 2 2 2 2 2 10 22 28 29 31 33 36 39 40 40 41 44 46 49 57 61 56 48 42 36 39 47 57 63 80 76 66 61 64 70
4 4 3 2 2 2 2 10 22 27 30 32 35 37 38 39 40 42 44 44 42 41 43 49 56 55 56 48 36 50 59 60 73 70 66 62 69 73
4 3 2 2 2 3 9 21 26 31 35 37 38 39 42 45 48 52 54 56 54 46 41 42 44 48 54 54 42 36 49 57 77 83 82 68 63 78
4 3 2 2 3 5 17 26 31 35 38 40 42 44 47 51 54 57 59 60 60 60 52 42 43 50 53 54 48 44 50 63 76 83 85 80 68 72
3 3 3 3 3 6 20 28 32 35 39 44 49 54 58 59 62 64 67 67 66 63 58 45 46 56 65 61 36 34 52 56 78 82 81 78 80 77
4 3 3 3 3 6 20 31 36 39 44 52 56 58 60 61 64 65 67 70 71 68 59 44 46 58 64 45 28 29 39 62 85 91 90 87 81 69
5 3 4 4 4 5 19 33 40 44 52 54 58 62 63 64 65 67 69 69 70 68 51 45 45 48 54 51 41 28 28 39 56 95 96 100 96 84
7 4 4 6 6 5 16 32 43 50 58 58 59 64 64 66 67 69 70 71 70 61 50 46 44 42 47 60 60 49 41 34 37 76 96 95 93 90

GFSNE_700_rhum_081.txt.gz
RH
54 57 62 68 97 81 87 92 93 93 90 89 99 99 100 100 98 98 91 91 91 100 100 100 98 99 100 100 100 100 96 99 95 90 83 74 42 18
42 47 52 60 72 95 86 91 93 98 99 96 99 97 98 98 98 97 99 98 100 100 98 100 98 98 99 100 92 77 58 48 38 23 16 12 9 8
40 42 49 55 56 56 63 73 82 99 94 99 100 99 99 99 97 94 98 98 98 98 98 97 94 96 89 81 61 35 17 12 10 9 8 7 5 4
51 49 50 52 55 54 52 52 70 70 98 98 98 100 91 89 90 93 97 99 100 98 96 90 55 23 12 10 9 9 8 7 6 5 4 4 4 4
70 70 68 66 70 71 67 71 95 96 100 98 98 99 95 94 97 97 96 93 70 30 13 10 9 8 8 8 6 5 4 4 4 4 5 6 10 15
64 61 70 73 78 95 98 80 100 94 98 100 100 97 97 98 96 67 21 12 10 9 8 8 6 5 4 4 5 5 6 9 13 16 18 20 21 21
62 61 69 78 98 100 99 99 94 98 98 97 97 94 80 29 12 10 10 8 7 5 4 4 5 6 10 18 24 28 28 26 23 22 23 25 26 27
60 69 93 100 98 99 98 95 96 96 99 89 27 14 12 11 9 6 4 3 3 2 6 18 21 36 37 32 26 24 23 25 28 29 30 30 32 36
74 84 96 97 93 89 89 80 52 25 15 12 11 9 7 5 4 2 2 3 10 18 25 36 30 28 26 27 27 28 29 30 31 34 38 41 44 45
76 77 67 46 29 15 14 13 11 9 6 5 4 3 2 2 2 3 12 22 26 26 24 26 24 28 31 33 35 36 37 39 41 44 48 52 52 51
19 16 15 13 12 9 6 4 4 3 3 2 2 2 2 2 10 18 23 27 31 33 30 29 31 31 31 36 41 46 44 43 44 48 55 58 57 55
15 14 13 9 6 4 4 3 2 2 2 2 2 2 6 17 20 23 25 28 29 34 32 31 32 31 26 35 43 46 43 43 43 53 60 62 64 62
15 13 10 6 4 4 2 2 1 2 2 2 2 12 18 21 23 25 27 29 32 33 34 32 31 32 29 27 25 32 42 40 42 49 62 68 68 67
16 13 7 4 4 3 2 2 2 2 2 4 14 20 23 24 25 27 28 30 33 36 38 37 36 36 34 36 38 32 30 41 42 46 61 68 72 74
16 13 7 5 5 2 2 2 2 2 6 16 22 24 25 27 29 30 30 32 35 38 40 39 39 39 39 42 41 47 28 28 45 42 53 66 68 70
16 10 6 4 3 2 2 2 2 7 18 23 26 27 28 30 32 34 38 41 44 48 49 47 43 39 37 39 42 47 44 28 33 48 55 72 75 73
17 9 5 4 3 3 3 3 6 17 23 27 29 31 34 38 40 43 45 48 50 53 56 59 59 50 40 39 42 54 51 35 32 40 50 60 70 80
15 8 5 4 3 3 3 5 13 21 26 31 34 37 40 44 48 52 54 57 58 60 60 63 60 56 42 39 50 47 37 29 23 31 46 67 69 80
20 10 6 4 4 4 4 5 15 24 29 33 37 40 45 50 54 56 56 57 59 60 64 66 65 56 42 36 42 50 35 29 27 36 46 62 74 79
28 13 8 6 4 4 4 4 12 25 31 35 38 44 50 52 56 58 58 56 57 60 63 68 65 52 45 40 35 48 60 51 44 31 31 38 76 81
41 25 14 9 5 5 6 5 8 22 31 36 41 51 54 55 59 58 58 57 56 58 58 63 60 51 49 47 44 40 45 64 66 53 31 31 60 70
50 39 25 16 9 5 7 8 8 15 29 40 46 58 61 63 63 62 61 58 64 63 61 60 57 54 53 54 51 44 39 45 53 51 38 35 67 82
55 52 36 22 13 7 6 10 13 15 23 38 52 65 68 69 69 66 62 64 64 63 64 58 57 59 59 60 53 48 45 44 44 41 30 40 89 94

GFSNE_700_rhum_084.txt.gz
RH
47 50 50 52 54 54 62 72 88 71 99 86 94 97 97 90 97 89 98 98 99 98 100 100 100 100 100 100 99 98 99 100 100 99 95 92 90 81
31 32 37 40 42 46 47 50 81 91 96 94 98 99 100 98 98 98 96 99 99 99 100 99 100 100 99 98 98 94 94 92 79 62 50 39 22 14
36 38 41 43 46 49 48 50 50 53 56 77 96 99 90 98 96 96 95 96 98 100 100 100 99 98 96 94 91 81 61 42 24 16 12 10 8 8
56 57 62 64 63 67 65 64 67 72 72 91 99 88 94 99 99 98 98 98 98 95 92 92 80 44 20 15 12 11 11 10 9 9 8 6 5 5
38 42 47 53 63 68 71 69 77 75 84 97 95 100 100 98 99 98 96 90 82 52 24 16 11 10 10 9 9 8 7 6 5 4 4 5 6 7
36 43 49 54 53 58 65 62 96 89 99 100 100 100 100 99 98 81 33 13 11 10 9 7 6 5 4 4 3 3 3 4 6 10 16 21 24 24
44 48 56 59 56 65 82 87 95 98 93 95 94 95 91 50 19 13 10 8 5 4 3 3 2 4 7 14 18 20 22 24 23 22 21 21 22 25
51 54 58 62 68 78 85 88 91 85 77 68 44 17 13 10 8 5 4 3 2 2 7 14 22 24 24 23 20 18 18 20 24 26 28 28 29 31
58 60 61 64 68 65 50 25 15 13 12 10 7 5 4 3 3 2 2 2 10 19 23 27 26 26 24 23 23 25 27 27 27 29 32 34 38 42
59 49 24 17 15 14 12 9 6 5 4 3 2 2 2 2 2 2 8 16 19 20 25 28 30 31 31 30 30 34 32 30 30 30 30 33 36 43
23 18 16 15 14 9 7 5 4 3 2 2 2 2 2 2 3 13 18 21 22 21 21 25 29 31 34 35 38 41 40 40 40 37 34 31 34 42
16 16 18 16 12 8 6 6 4 2 2 2 2 2 2 7 17 20 20 21 22 24 25 26 29 30 29 35 40 37 34 31 28 36 37 34 33 44
17 18 19 18 12 9 9 9 4 2 2 2 2 2 10 18 20 21 23 23 25 27 26 28 29 29 29 29 33 40 42 42 33 32 36 37 39 44
19 20 21 19 14 11 9 5 3 2 2 2 2 12 18 20 21 23 25 26 28 30 32 34 34 34 32 29 28 32 34 46 40 28 28 37 43 46
22 23 22 19 11 8 7 4 3 3 2 2 11 17 20 22 24 27 30 32 36 39 41 43 45 47 47 45 36 34 30 36 48 41 27 27 40 50
26 26 22 13 8 6 6 4 4 3 4 9 16 21 25 27 29 32 35 38 42 48 49 52 53 54 55 55 49 40 38 38 41 32 23 22 32 46
31 30 25 16 11 8 6 6 4 4 7 15 20 25 28 31 34 37 40 44 49 54 61 63 60 58 59 58 51 44 43 42 42 33 26 21 30 42
36 38 34 22 15 12 7 5 5 5 8 17 23 27 30 34 38 43 47 51 54 57 59 62 63 60 62 63 54 45 41 41 45 46 48 38 25 31
42 43 42 30 22 17 13 6 5 5 6 13 23 28 33 36 41 50 53 55 57 58 61 63 65 59 54 52 45 48 43 42 40 41 51 50 43 37
48 47 46 42 35 27 19 10 6 6 6 8 17 30 36 39 46 57 59 58 58 62 62 69 72 65 60 53 46 50 52 50 51 44 43 44 45 37
52 53 53 52 49 38 26 17 8 6 8 8 13 24 35 43 51 61 64 64 61 60 56 64 72 68 63 56 51 53 61 61 59 51 46 43 40 32
55 57 60 60 58 50 35 24 15 8 8 12 14 19 31 44 57 68 72 68 68 67 61 66 72 72 69 62 56 55 56 57 57 55 56 56 48 34
52 54 60 66 64 60 49 34 23 14 11 13 17 22 28 40 59 71 74 74 75 72 69 65 70 71 67 66 61 57 55 51 52 48 47 51 49 36

GFSNE_700_rhum_087.txt.gz
RH
37 40 44 47 48 46 42 37 38 42 46 57 67 73 81 79 61 87 98 92 94 96 94 98 100 100 99 100 100 98 98 97 98 97 98 99 99 95
28 29 30 31 33 35 38 41 47 52 72 65 89 62 62 71 94 90 99 100 99 97 94 99 99 93 95 98 98 98 97 96 94 96 95 89 77 61
31 34 38 41 47 53 56 59 63 64 64 68 66 72 74 77 96 97 93 99 94 98 100 100 97 98 96 97 93 80 66 50 33 19 12 11 10 10
48 50 53 50 47 41 43 47 58 62 69 69 66 72 80 88 92 98 100 99 99 96 89 91 86 54 26 16 12 11 10 10 10 9 8 8 7 6
43 37 35 36 34 37 43 43 49 54 64 56 60 78 94 89 98 98 98 95 96 82 39 14 12 10 7 5 4 3 3 3 3 3 3 4 5 6
36 36 33 37 40 47 56 54 57 62 64 72 71 78 87 87 90 90 74 40 18 12 9 5 3 2 2 2 4 5 8 10 14 18 20 22 23 23
32 32 43 46 48 54 54 59 68 71 71 75 72 63 49 34 22 14 12 9 6 4 2 2 2 6 9 12 13 15 17 17 16 15 15 17 20 23
42 48 49 49 54 59 63 65 58 38 21 14 13 10 8 6 5 4 4 2 2 2 2 8 13 15 17 18 17 17 16 17 18 20 22 23 25 27
51 54 54 57 44 23 16 15 14 11 8 6 5 4 3 2 2 2 2 2 2 7 14 16 18 18 18 17 18 20 20 20 21 23 25 26 26 27
59 58 43 23 17 16 16 13 10 8 6 4 2 2 2 2 2 1 1 3 12 15 17 19 21 22 23 20 20 22 22 22 23 22 22 20 20 28
47 25 18 16 18 18 16 13 11 11 11 7 4 2 2 2 1 2 8 14 17 17 18 21 24 23 26 24 26 27 26 26 29 33 34 28 21 24
20 17 17 18 20 20 18 15 13 13 11 5 3 2 2 2 3 11 15 17 18 20 21 23 26 26 28 31 32 34 36 36 35 35 36 36 24 22
18 18 19 21 23 24 20 16 14 14 9 5 3 2 2 3 12 15 17 19 21 23 22 25 29 32 33 33 33 33 33 34 34 35 35 41 36 26
20 21 23 25 27 24 18 15 14 10 7 5 3 3 4 11 15 18 20 23 25 28 31 33 36 40 40 40 40 45 44 40 37 35 38 44 39 27
24 26 29 30 28 25 20 16 14 13 10 6 4 4 10 14 19 21 24 27 30 34 36 40 42 45 47 47 44 51 46 45 41 38 39 40 31 26
30 32 33 32 33 30 26 23 19 13 10 7 5 8 13 18 22 26 29 31 35 41 42 46 48 47 49 53 51 56 60 51 44 40 36 39 41 37
35 36 37 37 35 33 30 26 22 18 10 7 6 8 14 19 24 28 32 36 40 46 56 60 57 53 52 52 53 60 58 54 47 42 37 32 40 46
40 41 41 40 39 38 36 35 32 26 17 9 6 6 11 20 27 31 34 37 42 52 59 63 64 62 58 59 67 67 64 54 51 48 47 40 35 42
44 46 46 46 45 46 46 45 40 34 25 14 8 6 7 14 25 34 38 41 48 58 64 65 66 63 53 53 59 68 59 54 51 52 53 49 44 45
49 50 51 52 54 56 55 53 49 42 34 24 13 9 9 10 16 27 40 47 55 65 71 73 76 73 64 58 51 63 63 55 57 54 56 56 54 48
50 52 54 54 57 62 62 59 55 50 43 37 25 15 11 12 14 18 28 44 56 68 72 75 80 78 70 65 57 59 66 66 62 61 57 60 54 45
48 50 50 50 55 66 66 66 62 58 53 49 38 26 18 16 17 22 26 35 52 66 75 80 85 85 80 73 65 61 62 66 70 65 67 68 63 54
41 43 43 43 49 61 67 69 70 67 61 56 49 34 25 20 22 26 31 37 45 58 70 78 88 90 80 76 71 66 66 66 66 63 57 63 58 58

GFSNE_700_rhum_090.txt.gz
RH
40 40 34 32 30 34 36 36 34 34 37 40 45 50 60 49 59 62 67 76 97 100 92 100 97 99 100 99 98 99 99 99 94 94 92 98 97 100
29 26 26 26 27 29 31 36 40 45 48 48 47 65 54 62 64 68 76 73 93 95 88 90 86 94 91 89 88 98 95 91 89 87 82 67 54 49
26 33 38 39 40 42 48 53 52 49 48 45 47 50 52 55 57 64 67 82 74 86 88 85 88 83 82 77 72 56 34 20 14 12 11 11 10 10
43 48 51 53 54 47 39 38 36 39 41 43 50 48 51 51 59 64 71 72 72 75 83 85 79 61 17 13 11 10 8 5 3 2 2 2 2 2
48 54 52 40 36 37 35 38 45 49 48 54 59 56 63 64 66 68 66 63 58 48 37 28 16 12 9 5 3 2 2 5 8 10 11 13 14 16
40 35 36 38 38 38 43 46 48 49 52 59 64 66 63 44 23 18 16 12 11 10 9 7 5 3 2 2 6 8 10 9 8 10 11 12 12 15
36 38 37 36 44 46 50 52 54 55 55 43 23 15 13 11 8 7 5 4 4 4 3 2 2 2 7 9 8 8 10 11 12 13 14 16 18 19
35 37 42 48 48 52 52 48 26 16 15 12 11 9 6 4 3 2 2 2 2 2 2 1 8 10 9 9 10 12 12 12 13 16 18 19 19 20
43 52 51 54 55 44 20 16 16 14 12 10 10 9 8 5 4 2 2 2 1 1 3 10 11 11 11 12 14 16 16 15 16 18 19 21 24 26
58 58 58 51 29 18 17 17 17 15 13 14 15 14 9 6 3 2 2 2 2 6 11 13 13 14 15 15 17 18 19 18 20 22 25 26 26 28
62 56 36 21 17 18 19 20 20 20 19 17 16 13 9 6 3 2 2 2 8 11 14 15 18 19 20 20 22 22 23 24 25 27 27 26 26 27
43 22 18 17 18 20 22 24 24 21 19 18 14 10 7 4 3 2 4 9 12 15 16 17 21 21 24 28 31 33 32 31 30 30 31 30 28 27
20 18 18 20 22 24 26 26 21 20 18 18 15 12 8 4 3 5 10 12 15 18 18 21 25 28 30 34 40 45 48 50 47 45 43 40 34 31
20 21 22 24 27 30 29 26 24 23 22 20 19 16 11 6 6 10 13 16 20 22 25 26 28 32 34 35 38 45 47 49 46 48 48 44 38 35
24 25 27 31 32 32 32 30 28 26 25 24 22 17 12 7 9 13 17 20 24 27 29 32 34 36 39 40 37 42 44 49 52 50 50 45 39 39
28 30 33 35 35 35 33 32 30 31 32 33 30 20 10 7 9 12 17 21 27 30 31 33 36 39 45 45 40 45 52 45 59 56 48 43 41 38
31 35 38 38 38 37 36 37 38 40 41 39 35 27 16 10 8 9 14 19 26 33 39 39 38 43 50 51 48 52 51 57 61 55 50 45 47 48
35 39 42 43 42 42 44 46 49 49 48 45 42 36 27 19 14 10 10 11 17 29 38 44 49 52 60 64 65 61 60 67 68 65 58 48 47 55
37 42 46 47 48 51 54 57 58 56 54 51 49 44 39 32 26 18 14 13 14 19 30 41 51 56 61 67 67 67 65 70 68 65 59 54 46 49
38 44 48 50 52 54 55 61 62 61 60 57 55 53 50 47 40 31 23 20 18 19 24 36 56 67 75 76 73 69 78 68 74 65 63 59 56 51
37 43 47 50 50 50 50 56 63 66 65 65 63 61 58 55 49 43 36 27 25 25 26 33 47 57 65 71 73 73 78 82 76 69 66 62 59 52
34 39 42 44 45 44 44 48 56 69 71 70 69 68 66 62 57 50 40 33 29 30 33 42 51 61 72 76 82 86 81 82 86 84 82 74 66 53
30 34 36 38 39 38 38 40 43 61 76 75 73 74 73 69 60 54 45 34 32 36 46 52 58 63 71 78 92 93 91 88 90 85 84 88 83 77

GFSNE_700_rhum_096.txt.gz
RH
24 24 22 28 30 33 41 40 30 28 29 32 35 37 42 44 54 52 50 50 52 51 58 59 62 66 72 82 87 78 83 81 78 78 79 78 70 59
22 23 25 29 31 33 37 30 30 35 39 42 47 49 45 43 42 45 45 47 49 56 57 61 63 71 67 68 75 79 78 69 38 19 15 12 10 8
22 28 44 32 26 29 29 34 45 50 52 55 47 41 36 41 46 45 53 48 49 58 58 61 65 62 50 50 58 58 44 21 13 9 5 3 2 2
27 27 98 42 29 31 34 48 53 57 48 38 37 37 45 51 52 53 55 54 56 32 19 16 15 14 10 10 9 8 7 5 4 2 2 4 6 6
28 30 28 37 38 43 52 57 56 39 38 35 41 46 49 50 55 49 34 16 13 10 7 5 4 4 3 3 3 2 2 2 2 5 7 7 7 8
29 30 34 45 50 55 56 44 39 39 40 47 51 52 44 26 15 13 11 8 6 6 5 5 3 2 2 2 2 1 2 6 7 7 7 8 8 8
30 39 47 51 55 51 41 42 37 43 49 51 37 17 15 14 13 12 13 14 14 12 7 5 3 2 2 2 3 7 7 7 8 8 9 9 9 9
49 49 49 46 39 45 45 40 49 52 47 18 16 15 15 16 17 18 19 17 14 9 6 3 2 2 3 6 8 8 9 10 11 11 12 12 12 13
51 41 39 40 42 44 51 56 53 26 17 17 18 18 19 21 21 20 17 14 10 6 4 3 3 5 7 8 10 11 11 11 12 13 15 16 16 16
38 42 43 45 50 56 59 41 20 17 18 20 21 22 23 22 20 16 14 13 9 6 5 5 6 7 8 10 12 13 14 15 17 19 21 23 24 24
46 51 54 59 62 59 29 18 18 19 21 23 25 24 22 21 19 19 18 16 10 8 8 7 9 9 10 13 15 17 19 21 21 23 25 27 29 29
65 67 69 65 42 21 18 18 20 23 26 26 25 24 22 21 22 24 21 17 14 12 11 12 11 12 14 16 18 22 23 25 26 28 29 31 31 30
75 72 53 27 18 18 20 22 25 28 28 27 26 24 23 26 28 26 24 21 18 15 13 14 13 14 16 18 22 24 25 26 27 27 32 38 36 34
65 37 20 18 19 21 24 28 31 30 29 28 27 28 30 33 32 30 28 24 22 19 18 15 14 15 17 19 24 28 32 34 33 36 38 42 43 43
26 18 19 20 23 26 30 33 33 32 30 30 32 35 38 38 36 34 32 30 28 27 25 22 19 18 18 18 20 25 28 32 32 37 39 45 48 49
19 20 22 25 28 32 36 37 35 34 34 36 41 43 44 44 42 40 39 37 36 35 33 32 31 28 24 24 25 24 27 28 38 39 38 44 50 54
20 23 26 28 32 37 39 40 40 40 43 47 50 50 49 49 48 47 46 46 46 45 44 44 44 43 41 39 35 32 36 40 42 44 41 48 61 63
23 25 28 31 35 39 42 44 45 48 52 55 56 56 56 56 56 56 55 56 56 55 54 53 53 53 52 47 43 43 39 38 40 43 50 53 66 71
24 26 28 31 35 40 44 47 49 52 52 53 57 59 61 64 66 65 63 64 64 63 63 62 61 60 59 55 49 41 42 44 44 48 58 68 74 79
23 25 27 29 33 37 42 47 49 50 49 47 47 48 48 52 63 70 71 72 70 69 68 67 64 61 55 43 30 41 58 58 62 61 64 68 77 91
22 23 24 26 28 32 36 39 42 43 43 41 40 39 39 41 59 72 74 75 72 71 71 67 61 51 32 30 34 44 60 75 74 71 66 66 72 83
21 21 22 22 24 27 29 30 32 33 34 35 34 34 35 39 54 76 79 77 74 72 69 62 45 32 32 32 34 37 50 72 88 85 82 77 73 69
21 20 20 21 22 23 24 25 26 27 29 50 37 37 42 53 70 80 82 78 74 71 64 48 32 31 32 34 36 40 47 61 71 74 82 95 87 87

GFSNE_700_rhum_099.txt.gz
RH
36 37 35 33 31 30 30 29 33 35 39 28 30 35 39 42 46 48 45 44 48 44 49 44 50 57 58 61 62 64 60 69 73 76 70 52 25 20
25 24 22 25 28 34 33 42 30 57 41 30 39 48 51 52 45 37 36 38 39 47 42 43 54 58 60 61 59 51 55 60 64 61 48 19 12 8
19 19 22 23 29 51 99 50 32 32 32 38 52 58 50 39 36 38 42 44 49 46 46 54 46 28 24 23 16 14 11 10 12 11 9 6 4 2
24 26 29 29 30 33 66 98 42 35 42 54 60 45 39 37 46 44 48 50 50 52 40 20 13 10 7 6 4 4 3 3 3 3 2 2 2 4
30 32 31 32 31 77 78 43 47 50 57 61 39 38 44 47 48 52 46 29 17 13 10 7 6 6 6 5 4 2 2 2 2 2 3 5 5 6
32 32 32 33 34 35 37 52 55 59 57 42 40 44 50 51 37 17 14 12 11 11 12 14 14 10 6 4 3 2 2 2 5 6 6 6 6 7
32 33 30 30 33 46 55 56 59 48 44 42 48 53 42 17 14 13 14 16 17 18 18 14 10 7 5 3 2 3 4 6 6 7 8 9 10 10
31 29 31 45 51 54 53 52 44 47 45 51 56 24 16 16 16 18 19 21 21 17 14 12 8 6 4 4 4 5 6 7 8 9 10 10 11 12
32 34 50 55 54 48 42 47 47 51 55 46 18 16 17 19 21 22 22 20 17 14 13 10 8 6 6 6 6 6 8 9 10 11 13 14 16 18
39 52 56 49 43 46 48 48 56 59 32 18 18 19 21 23 23 22 20 18 18 17 14 11 10 9 9 9 8 8 10 12 13 14 16 18 21 23
55 47 42 47 53 54 61 62 50 22 18 19 20 23 24 24 23 21 20 22 22 19 15 14 12 13 13 12 12 12 13 14 15 17 19 21 24 25
45 49 56 62 65 67 64 37 19 18 20 22 26 26 25 24 22 22 25 26 24 21 18 16 16 16 17 17 17 16 16 16 17 19 21 23 25 26
61 65 74 76 73 50 24 18 18 21 24 28 28 27 26 24 24 28 29 28 26 24 22 21 21 22 21 20 20 19 19 20 21 21 22 24 25 30
78 79 80 62 31 18 17 19 22 27 30 30 29 27 26 28 32 34 34 32 30 28 27 28 28 28 29 29 27 26 23 23 24 24 26 27 30 34
88 79 45 23 18 18 21 24 29 32 33 32 30 30 33 37 39 40 39 38 36 35 34 34 35 36 38 39 40 35 35 31 31 29 30 31 33 36
76 39 20 18 19 22 26 30 34 36 35 34 34 39 43 44 44 44 44 43 44 44 45 46 46 47 48 49 50 50 48 49 45 46 46 44 41 38
37 19 18 20 23 27 30 35 38 40 39 41 45 49 51 51 50 50 52 54 55 54 54 55 56 57 57 58 59 58 57 55 52 45 37 34 36 38
19 18 20 23 26 29 33 37 41 45 46 47 51 52 54 57 58 60 61 62 64 64 64 64 64 63 62 62 59 58 52 37 27 30 38 40 41 52
18 20 22 25 27 30 33 38 43 46 48 50 51 50 50 51 50 48 49 58 66 68 69 68 66 63 61 61 58 41 26 28 29 33 44 51 49 60
18 20 22 25 26 28 31 35 39 43 47 48 48 47 45 43 42 41 41 48 67 71 72 69 64 62 60 57 37 28 27 24 26 31 39 50 60 67
18 20 22 23 25 26 27 29 32 34 37 38 39 39 38 37 36 36 39 52 72 75 74 69 65 63 60 43 22 23 28 30 30 30 36 45 51 57
18 18 20 21 22 23 23 24 25 26 27 28 29 30 31 35 50 52 66 80 83 78 74 70 68 64 55 27 22 20 24 31 35 34 41 50 55 50
21 19 19 19 19 20 21 21 21 21 23 25 30 43 62 76 84 71 91 92 90 82 75 71 69 64 44 25 22 20 24 29 32 36 45 52 55 64

GFSNE_700_rhum_102.txt.gz
RH
65 56 52 45 40 39 38 38 37 42 43 39 36 48 37 32 42 51 53 51 42 38 40 46 47 50 50 56 57 56 56 34 36 28 33 38 39 32
43 42 44 43 36 26 24 28 42 90 68 65 38 34 42 42 50 57 48 40 35 40 41 44 52 49 54 53 44 28 18 12 11 8 7 7 6 6
51 48 41 31 25 26 27 34 99 76 99 98 58 40 48 56 54 35 36 41 45 47 50 52 50 54 34 16 11 8 6 5 4 3 3 2 2 2
53 48 36 28 28 30 38 32 34 90 87 96 65 50 58 53 37 33 44 44 48 50 54 52 28 14 10 6 6 7 7 5 3 2 2 2 2 2
52 47 34 30 31 32 32 36 37 89 84 99 63 58 55 40 39 48 47 48 34 19 14 11 9 9 11 13 12 8 5 3 2 2 2 4 4 4
45 40 35 34 33 34 35 37 72 93 86 80 64 59 43 42 50 49 28 15 13 13 13 15 16 17 15 12 8 6 3 3 3 4 4 5 5 6
40 37 36 35 34 34 33 40 44 50 59 61 55 46 42 51 47 18 14 14 16 18 20 20 17 14 12 8 6 4 5 5 5 5 6 6 7 8
41 40 39 38 39 36 33 44 54 56 58 48 44 42 56 42 16 15 16 18 21 21 19 16 14 12 9 7 7 8 8 8 7 7 7 8 9 10
41 40 40 41 39 38 51 56 55 50 48 48 46 58 31 16 17 18 21 23 23 19 16 17 14 11 9 9 10 12 12 12 11 10 10 10 11 13
41 41 41 42 48 55 58 53 44 46 50 54 58 28 17 18 20 23 24 22 20 19 21 18 14 12 12 12 14 15 16 16 15 16 15 14 14 15
44 45 50 53 59 56 48 47 50 54 62 51 21 18 19 22 24 24 23 21 22 24 22 19 16 15 15 16 17 18 19 20 20 19 18 18 18 19
60 61 62 57 54 56 56 57 64 62 36 19 18 20 24 26 25 24 22 24 27 27 23 21 20 19 19 20 21 24 25 25 26 26 27 26 24 24
71 66 66 68 68 68 68 69 53 25 18 19 22 26 28 27 26 24 26 30 31 30 27 25 24 24 26 27 28 31 32 32 34 36 36 33 34 34
86 80 78 81 81 81 67 39 17 18 20 24 28 30 29 28 27 30 34 35 35 34 33 32 31 31 33 35 38 39 42 44 46 46 47 50 48 46
99 94 93 92 79 44 20 17 18 21 26 31 33 32 31 30 33 38 40 40 40 38 39 40 41 43 45 48 50 52 53 55 57 57 57 56 56 53
100 100 95 64 35 18 17 19 23 27 33 36 36 35 34 38 44 46 46 44 44 46 50 52 51 51 54 58 60 61 60 59 57 54 50 31 21 22
100 100 66 29 18 17 20 24 28 33 38 40 40 41 43 48 52 54 55 55 56 57 58 59 59 60 61 63 61 58 56 54 50 33 17 16 18 22
98 83 60 30 18 20 24 27 32 37 40 44 46 46 49 52 53 54 54 53 51 50 56 62 62 62 64 63 55 54 53 47 27 17 15 13 18 26
97 46 20 18 19 22 26 29 33 37 42 46 48 49 51 51 49 48 46 46 45 44 47 64 66 65 63 60 58 51 49 30 18 16 15 18 23 26
96 46 18 18 20 23 26 28 31 34 38 41 45 47 48 47 45 42 40 39 39 42 56 74 74 69 63 60 58 56 41 23 15 14 16 24 28 31
96 78 48 18 20 22 24 26 27 29 31 33 35 37 37 37 35 34 33 36 52 63 73 84 80 74 67 63 59 54 29 21 16 14 19 30 34 37
96 88 18 17 19 20 22 23 24 24 25 26 26 27 27 27 28 33 48 65 84 78 84 90 88 79 70 65 62 56 29 23 18 18 25 35 43 46
97 96 44 28 20 18 19 20 21 21 21 21 21 21 22 23 34 89 97 96 94 87 96 94 92 84 75 70 65 57 31 23 19 21 32 41 52 58

GFSNE_700_rhum_105.txt.gz
RH
91 78 78 69 73 62 46 43 44 45 42 50 59 92 73 54 37 38 45 50 57 57 48 46 43 46 44 48 41 53 57 50 39 19 11 9 7 7
61 54 54 54 50 46 44 43 37 36 56 66 55 100 75 96 62 44 47 53 50 40 39 47 49 47 49 47 50 41 21 16 12 7 6 4 3 2
63 62 58 55 54 52 46 34 27 30 58 86 85 98 96 91 67 56 57 45 39 41 48 54 55 53 50 52 23 13 8 6 8 7 5 4 2 2
65 66 63 59 57 55 46 33 32 34 41 46 91 93 79 92 65 59 48 40 45 50 54 56 54 44 21 13 8 8 12 12 8 4 3 2 2 3
83 80 73 66 62 51 42 33 33 33 35 49 84 95 77 84 65 53 43 49 52 52 37 20 13 10 10 13 16 16 12 8 5 3 4 4 4 4
69 65 61 55 50 43 38 36 37 36 38 41 90 98 67 72 62 46 51 54 34 15 12 12 14 17 18 18 15 12 8 5 4 6 6 5 5 6
51 48 46 46 42 40 39 38 38 38 37 48 49 59 62 64 49 49 58 24 13 13 16 18 20 20 16 14 11 8 5 7 9 10 9 9 8 8
40 40 41 40 40 39 38 37 39 38 40 49 58 62 62 50 54 60 29 14 15 17 20 21 19 15 14 12 9 7 9 11 13 14 14 14 13 13
42 41 41 40 42 41 40 42 41 41 46 58 63 61 58 56 59 29 15 17 20 22 22 18 17 18 15 11 10 11 13 14 15 16 17 18 19 19
37 39 40 41 42 43 44 44 45 56 63 61 56 57 60 62 23 16 18 21 23 22 19 20 20 18 14 12 12 14 15 17 18 20 22 23 22 22
46 40 41 43 45 46 48 54 62 65 60 59 59 67 55 19 17 20 23 24 23 21 23 24 21 18 16 15 16 17 19 21 24 25 27 29 29 29
63 53 48 50 56 58 62 66 61 64 67 68 70 33 17 18 21 24 25 24 22 24 28 26 23 21 20 20 20 22 25 27 30 32 35 38 40 42
73 72 69 72 69 69 65 69 71 75 75 47 18 17 19 23 26 26 26 24 27 32 32 30 28 27 26 27 28 30 32 36 40 44 46 49 53 55
88 92 90 88 83 80 81 87 85 70 26 16 17 21 25 28 29 27 26 30 35 37 36 36 35 35 36 37 39 41 45 49 53 55 56 55 54 51
99 100 100 100 98 98 96 86 41 19 16 18 23 28 31 32 30 30 33 39 42 41 41 40 41 44 47 48 50 53 57 56 57 56 51 47 46 33
100 100 100 100 100 98 66 32 16 16 20 25 30 35 35 34 34 37 45 47 46 45 46 50 54 55 56 58 61 62 59 58 52 46 43 40 20 14
98 99 100 99 97 59 23 15 16 20 26 32 38 39 39 40 45 50 53 54 55 55 56 56 55 57 61 62 62 61 59 52 46 42 40 22 14 13
98 98 97 98 84 31 18 17 20 25 31 37 42 44 46 48 52 54 54 54 54 52 49 47 46 48 61 66 64 62 56 52 43 42 33 15 12 15
96 96 98 97 95 79 42 33 23 27 32 39 44 48 50 52 53 53 51 49 47 44 43 41 42 53 72 75 71 66 59 52 46 42 27 14 12 17
96 96 97 96 26 34 52 22 25 27 31 36 40 43 48 50 51 50 48 45 41 38 36 40 54 70 78 81 77 71 61 55 52 42 25 14 12 16
96 96 96 96 82 37 18 21 23 26 28 30 32 35 37 38 39 39 38 36 33 33 41 60 82 80 82 87 87 89 70 61 55 44 28 16 14 18
96 96 96 96 76 36 52 26 21 22 24 25 26 26 27 28 28 28 28 28 29 50 93 95 93 87 90 90 92 86 76 68 60 47 31 19 15 16
96 96 96 96 97 95 67 26 28 35 22 22 22 22 22 22 22 22 22 22 23 46 91 95 94 93 95 94 93 86 78 72 63 49 29 21 18 18

GFSNE_700_rhum_108.txt.gz
RH
100 100 100 100 99 98 99 98 97 67 46 45 50 46 62 75 69 99 86 86 45 45 56 60 53 47 42 46 84 52 91 65 56 56 29 13 7 5
81 97 90 78 82 90 73 66 65 56 52 44 43 81 58 60 99 99 56 75 49 53 57 43 40 40 48 48 48 52 51 44 23 13 8 7 6 5
90 87 73 69 67 64 63 61 58 57 52 39 32 36 68 83 100 99 66 83 62 59 43 39 47 49 50 54 50 53 28 12 7 8 9 6 4 3
90 86 90 83 74 74 72 67 62 64 52 39 34 41 89 71 99 92 83 83 67 48 43 52 52 52 51 46 26 13 8 9 13 10 6 4 3 4
84 90 95 88 80 80 80 75 68 59 48 40 35 47 52 56 85 97 90 72 60 44 53 54 47 27 14 10 11 13 16 15 10 6 4 6 7 7
77 77 74 71 67 64 60 57 53 48 43 39 39 62 46 79 84 100 99 69 48 55 55 19 12 12 15 17 19 18 15 11 6 5 8 10 11 11
56 53 52 50 48 46 46 47 47 46 42 40 42 44 51 53 99 83 75 62 50 56 17 13 15 18 20 20 17 14 10 7 6 10 12 13 14 15
44 44 43 41 40 40 42 44 45 45 45 46 48 73 72 91 81 81 67 52 61 23 13 16 19 21 19 15 14 12 8 7 10 13 15 16 17 18
46 44 41 38 39 41 42 44 45 47 48 53 57 80 60 66 76 67 57 65 34 13 17 21 22 19 17 17 15 10 9 10 13 15 17 18 20 22
52 51 46 41 37 37 42 45 46 46 48 51 54 60 72 70 64 62 67 31 15 18 21 22 20 19 20 17 13 11 12 13 15 17 20 23 25 28
65 61 55 51 49 46 45 47 48 49 52 56 67 72 68 64 68 72 24 15 19 22 22 21 22 24 21 17 14 14 15 17 19 22 25 29 33 36
73 66 60 59 59 56 53 51 56 59 63 71 72 67 68 74 66 18 16 20 22 23 23 22 27 26 22 20 18 19 20 22 25 28 33 39 45 48
74 72 71 75 77 72 67 70 73 73 77 75 74 77 75 38 16 17 21 23 24 24 25 30 31 30 27 26 24 25 26 29 33 37 45 50 51 52
79 85 82 99 100 93 90 85 84 85 89 87 77 42 17 16 19 22 25 26 25 27 32 36 36 35 34 33 34 35 37 40 43 50 54 53 49 41
84 94 99 100 100 100 100 98 100 98 87 50 23 15 17 21 26 28 29 28 31 36 40 42 42 41 40 41 45 48 50 50 55 57 56 50 38 31
89 98 100 100 100 100 100 100 96 69 29 15 15 19 24 29 32 33 33 36 41 46 47 46 46 48 52 56 58 60 59 60 58 56 54 45 33 34
94 96 99 99 97 97 98 94 54 22 14 16 30 55 39 36 37 38 41 48 52 53 55 57 58 58 57 56 60 62 64 63 60 59 54 43 38 34
92 95 97 100 100 99 97 60 21 15 24 35 53 34 39 42 45 48 54 58 58 59 58 55 51 49 47 47 52 63 68 68 65 60 54 44 41 31
91 98 95 98 97 97 96 70 33 45 61 48 33 40 43 48 52 54 55 55 53 51 49 47 44 42 40 45 61 74 80 77 72 64 58 50 41 32
94 98 98 97 97 97 96 96 90 36 25 26 39 43 42 48 52 55 54 54 52 50 46 41 38 35 43 70 88 94 93 90 85 79 65 56 47 37
96 96 97 97 98 99 96 45 92 94 77 59 78 33 36 40 44 46 47 47 45 42 37 33 31 46 92 94 95 95 95 94 91 84 71 61 53 40
97 97 97 97 96 96 99 73 76 61 28 43 45 27 28 30 31 32 32 32 31 29 27 26 26 32 63 84 95 94 94 97 94 85 77 67 58 44
96 96 96 97 96 96 97 96 91 33 21 50 46 24 25 34 25 24 24 24 24 42 54 33 25 25 38 90 94 96 95 96 96 92 83 70 60 51